GFSNGP_700_temp_000.txt.gz
Temp
-2 -2 -2 -2 -2 0 -2 -1 -3 4 0 3 3 1 -1 -1 -1 -2 -2 -3 -3 -3 -3 -4 -5 -5 -6 -7 -8 -8 -9 -9 -10 -11 -12 -12 -13 -13 -13 -13 -13 -13 -13 -13
-3 -2 -3 -3 -1 2 -2 -2 -2 -1 -0 3 -0 -1 -1 -2 -2 -3 -3 -3 -3 -4 -4 -5 -6 -7 -7 -8 -8 -9 -10 -10 -12 -12 -12 -13 -13 -13 -13 -13 -13 -13 -13 -13
-3 -3 -3 -3 3 2 2 -0 -0 -1 1 -1 -1 -2 -2 -2 -4 -4 -3 -4 -4 -5 -5 -5 -7 -8 -9 -9 -9 -10 -10 -12 -13 -13 -13 -13 -14 -14 -14 -14 -13 -13 -13 -13
-3 -4 -2 2 2 1 -0 -0 0 -1 -1 -2 -2 -3 -3 -3 -4 -4 -4 -5 -5 -5 -6 -6 -7 -8 -9 -9 -10 -11 -12 -12 -13 -13 -13 -14 -14 -14 -14 -14 -13 -13 -13 -14
-3 -2 -1 -1 1 0 -1 -1 -1 -2 -3 -3 -3 -3 -3 -4 -5 -4 -4 -5 -6 -6 -7 -7 -8 -9 -9 -10 -11 -12 -13 -13 -13 -13 -14 -14 -14 -14 -14 -14 -14 -14 -14 -14
-3 -3 -1 0 -1 -1 -1 -2 -3 -3 -3 -3 -4 -4 -3 -5 -4 -4 -5 -5 -6 -6 -7 -8 -8 -9 -10 -11 -12 -13 -13 -14 -13 -14 -14 -14 -14 -14 -14 -14 -14 -14 -14 -14
-2 -4 -3 -1 -1 -1 -3 -2 -3 -4 -4 -4 -4 -4 -4 -4 -4 -5 -5 -6 -6 -7 -7 -8 -9 -10 -11 -13 -13 -13 -14 -14 -14 -14 -14 -14 -14 -14 -14 -14 -14 -14 -14 -14
-3 -4 -3 -1 -1 -3 -3 -3 -4 -3 -4 -4 -4 -4 -5 -5 -5 -6 -6 -6 -7 -8 -9 -9 -10 -11 -13 -13 -13 -13 -14 -14 -14 -14 -14 -15 -14 -15 -15 -15 -14 -14 -14 -14
-3 -2 -2 -2 -3 -3 -4 -4 -4 -5 -4 -4 -4 -5 -5 -6 -6 -6 -7 -7 -8 -9 -9 -10 -11 -12 -13 -13 -14 -14 -14 -14 -15 -15 -15 -15 -15 -15 -15 -14 -14 -14 -15 -15
-3 -3 -3 -4 -4 -4 -4 -5 -5 -5 -4 -5 -5 -5 -6 -6 -7 -7 -8 -8 -9 -10 -10 -11 -12 -13 -13 -14 -14 -14 -15 -15 -15 -15 -15 -15 -15 -15 -15 -15 -15 -15 -15 -15
-4 -3 -3 -4 -4 -5 -5 -5 -5 -5 -6 -5 -5 -6 -6 -7 -7 -8 -8 -9 -10 -11 -12 -13 -13 -13 -14 -14 -14 -15 -15 -15 -15 -15 -15 -15 -15 -15 -15 -15 -15 -16 -16 -15
-3 -3 -4 -4 -5 -5 -5 -5 -5 -5 -5 -6 -6 -7 -7 -8 -8 -8 -9 -10 -11 -12 -13 -13 -14 -14 -14 -15 -15 -15 -15 -15 -15 -15 -15 -15 -15 -15 -16 -16 -16 -16 -16 -16
-4 -5 -5 -5 -4 -5 -5 -5 -5 -6 -6 -7 -7 -7 -8 -8 -9 -9 -10 -11 -13 -13 -13 -14 -14 -14 -14 -15 -15 -15 -15 -15 -15 -15 -15 -15 -15 -15 -15 -15 -16 -16 -16 -15
-5 -5 -5 -4 -5 -5 -5 -6 -6 -6 -6 -7 -7 -8 -9 -9 -10 -11 -12 -13 -13 -13 -14 -14 -14 -14 -15 -15 -15 -15 -15 -15 -15 -15 -15 -15 -15 -15 -15 -15 -15 -16 -15 -15
-6 -6 -6 -6 -6 -6 -6 -6 -6 -7 -7 -8 -9 -9 -10 -10 -11 -12 -13 -13 -13 -14 -14 -14 -14 -15 -15 -15 -15 -15 -15 -15 -15 -16 -16 -15 -15 -16 -16 -16 -16 -16 -15 -15
-5 -6 -6 -6 -6 -7 -7 -7 -7 -7 -8 -9 -10 -10 -10 -11 -13 -13 -13 -14 -14 -14 -14 -14 -15 -15 -15 -15 -15 -15 -16 -15 -16 -16 -16 -16 -16 -16 -16 -16 -16 -16 -15 -15
-6 -6 -7 -7 -8 -8 -7 -8 -8 -9 -9 -10 -10 -11 -12 -13 -13 -13 -14 -14 -14 -14 -14 -15 -15 -15 -15 -15 -15 -16 -16 -16 -16 -16 -16 -16 -16 -16 -16 -16 -16 -16 -16 -15
-7 -8 -8 -8 -9 -8 -9 -10 -10 -10 -10 -11 -11 -12 -14 -14 -13 -14 -14 -14 -14 -14 -15 -15 -16 -16 -16 -16 -16 -16 -16 -16 -16 -16 -16 -16 -16 -16 -16 -17 -17 -17 -16 -16
-9 -9 -9 -8 -9 -9 -10 -10 -11 -11 -12 -12 -13 -14 -13 -13 -14 -14 -14 -14 -14 -15 -15 -15 -16 -16 -15 -16 -16 -16 -16 -16 -17 -17 -17 -17 -17 -16 -17 -17 -17 -17 -17 -16
-9 -9 -9 -9 -11 -11 -12 -12 -12 -13 -14 -14 -13 -13 -14 -14 -14 -14 -14 -14 -15 -15 -15 -16 -16 -16 -16 -16 -16 -17 -17 -17 -17 -17 -17 -17 -17 -17 -17 -17 -17 -17 -17 -17
-10 -10 -10 -11 -11 -12 -13 -14 -13 -14 -14 -14 -14 -14 -14 -14 -14 -14 -15 -15 -15 -15 -15 -16 -16 -16 -16 -16 -17 -17 -17 -17 -17 -17 -17 -17 -17 -17 -17 -17 -17 -17 -17 -17
-10 -10 -11 -11 -11 -12 -14 -14 -14 -14 -14 -14 -14 -14 -14 -14 -15 -15 -15 -15 -15 -15 -16 -16 -16 -16 -16 -17 -17 -17 -17 -17 -17 -17 -17 -17 -17 -17 -17 -17 -17 -17 -17 -17
-11 -11 -11 -11 -11 -13 -14 -14 -15 -14 -14 -14 -14 -15 -15 -15 -15 -15 -15 -15 -15 -16 -16 -16 -16 -17 -17 -17 -17 -17 -17 -17 -17 -17 -17 -17 -17 -17 -17 -17 -17 -17 -17 -17
-11 -11 -11 -12 -12 -13 -14 -15 -15 -14 -14 -14 -15 -15 -15 -15 -16 -16 -16 -16 -16 -16 -16 -16 -16 -17 -17 -17 -17 -17 -17 -17 -17 -17 -17 -17 -17 -17 -17 -17 -17 -17 -17 -17
-11 -11 -12 -12 -13 -14 -14 -15 -15 -14 -15 -15 -15 -15 -16 -16 -16 -16 -16 -16 -16 -16 -16 -17 -17 -17 -17 -17 -17 -17 -17 -17 -17 -17 -17 -17 -17 -17 -17 -17 -17 -17 -17 -17
-12 -12 -12 -13 -13 -14 -15 -15 -15 -15 -15 -15 -15 -15 -16 -16 -16 -16 -16 -16 -16 -17 -17 -17 -17 -17 -17 -17 -17 -17 -17 -17 -17 -17 -17 -17 -17 -17 -17 -17 -17 -17 -17 -17
-12 -12 -13 -13 -14 -14 -15 -15 -15 -15 -15 -15 -15 -15 -16 -16 -16 -16 -16 -17 -17 -17 -17 -17 -17 -17 -17 -17 -17 -17 -17 -17 -17 -17 -17 -17 -18 -18 -18 -18 -18 -18 -17 -17

GFSNGP_700_temp_003.txt.gz
Temp
-0 0 0 1 1 1 1 1 1 2 2 2 2 2 1 -0 -1 -2 -3 -3 -4 -4 -4 -3 -3 -4 -5 -5 -6 -7 -8 -8 -9 -9 -10 -11 -12 -12 -13 -13 -13 -13 -13 -13
-2 -2 -1 -0 -0 0 0 1 1 1 2 2 1 0 -1 -2 -2 -3 -4 -4 -3 -3 -3 -4 -4 -5 -6 -7 -8 -9 -10 -9 -10 -11 -11 -12 -12 -13 -13 -13 -14 -14 -14 -14
-3 -2 -2 -2 1 2 1 1 2 1 1 1 -0 -1 -3 -3 -3 -4 -4 -5 -3 -4 -4 -5 -5 -6 -7 -8 -9 -10 -10 -10 -11 -12 -12 -13 -13 -13 -13 -14 -14 -14 -14 -14
-3 -3 -1 2 2 1 1 1 1 0 0 -1 -2 -3 -3 -3 -4 -3 -4 -5 -4 -4 -5 -5 -6 -7 -8 -8 -9 -10 -10 -11 -12 -13 -13 -13 -14 -14 -14 -14 -14 -14 -14 -14
-2 -2 -1 -1 1 0 -1 -1 -1 -1 -2 -2 -1 -3 -2 -4 -4 -4 -4 -5 -5 -5 -5 -6 -7 -7 -8 -9 -10 -10 -11 -12 -13 -13 -13 -14 -14 -14 -14 -14 -14 -14 -14 -14
-3 -3 -2 0 -0 -1 -1 -1 -1 -2 -2 -3 -4 -4 -4 -4 -4 -5 -5 -5 -6 -6 -6 -6 -8 -8 -8 -10 -10 -11 -13 -13 -13 -13 -14 -14 -14 -14 -14 -14 -14 -14 -14 -14
-3 -3 -3 -1 -1 -1 -2 -1 -3 -3 -3 -3 -4 -4 -4 -4 -4 -4 -5 -6 -6 -6 -8 -8 -8 -9 -10 -10 -12 -12 -13 -13 -14 -14 -14 -14 -14 -14 -14 -14 -14 -14 -14 -14
-3 -3 -2 -1 -1 -3 -3 -2 -3 -3 -4 -4 -4 -4 -5 -5 -4 -5 -5 -6 -6 -7 -8 -9 -9 -10 -11 -13 -13 -13 -13 -14 -14 -14 -15 -15 -15 -14 -14 -14 -14 -14 -14 -14
-2 -2 -1 -1 -2 -3 -3 -3 -4 -4 -5 -4 -4 -5 -5 -5 -5 -6 -6 -7 -7 -8 -9 -10 -10 -11 -12 -13 -13 -13 -14 -14 -14 -15 -15 -15 -15 -14 -15 -15 -15 -14 -14 -14
-3 -3 -3 -3 -3 -3 -3 -3 -4 -4 -5 -5 -5 -5 -5 -5 -6 -6 -7 -8 -8 -9 -10 -11 -11 -12 -13 -13 -13 -14 -14 -14 -15 -15 -15 -15 -15 -15 -15 -15 -15 -14 -14 -14
-4 -4 -3 -3 -3 -4 -4 -5 -5 -5 -5 -5 -5 -5 -5 -6 -7 -8 -8 -9 -9 -10 -11 -12 -13 -13 -13 -13 -14 -14 -14 -15 -15 -15 -15 -15 -15 -15 -15 -15 -15 -15 -15 -15
-4 -4 -4 -4 -4 -5 -5 -5 -5 -6 -6 -5 -8 -6 -7 -8 -8 -9 -9 -10 -10 -11 -12 -13 -13 -13 -14 -14 -14 -14 -15 -15 -15 -15 -15 -15 -15 -15 -15 -15 -15 -15 -15 -15
-4 -4 -5 -5 -5 -5 -5 -6 -6 -6 -6 -7 -6 -7 -7 -8 -9 -9 -10 -11 -11 -12 -13 -13 -14 -14 -14 -14 -14 -15 -15 -15 -15 -15 -15 -15 -15 -15 -15 -15 -16 -16 -15 -15
-5 -5 -5 -5 -6 -6 -7 -6 -6 -6 -7 -6 -7 -8 -8 -9 -10 -10 -12 -12 -13 -13 -13 -14 -14 -14 -14 -14 -15 -15 -15 -15 -15 -15 -15 -15 -15 -15 -15 -15 -15 -16 -16 -15
-5 -6 -5 -6 -6 -6 -6 -6 -5 -6 -6 -7 -7 -8 -9 -10 -10 -11 -13 -14 -13 -13 -14 -14 -14 -14 -15 -15 -15 -15 -15 -15 -16 -16 -16 -16 -16 -16 -16 -16 -16 -16 -16 -15
-6 -6 -6 -7 -7 -6 -6 -6 -7 -7 -7 -8 -9 -10 -10 -11 -12 -13 -14 -14 -13 -14 -14 -14 -14 -15 -15 -15 -15 -15 -15 -16 -16 -16 -16 -16 -16 -16 -16 -16 -16 -16 -16 -15
-7 -7 -7 -7 -7 -7 -8 -8 -8 -8 -9 -10 -10 -11 -11 -12 -13 -14 -14 -14 -14 -14 -14 -14 -15 -15 -15 -15 -15 -16 -16 -16 -16 -16 -16 -16 -16 -16 -16 -16 -17 -17 -16 -16
-8 -8 -9 -9 -8 -9 -9 -9 -9 -10 -11 -12 -12 -12 -13 -13 -14 -14 -14 -14 -14 -14 -14 -15 -15 -15 -16 -16 -16 -16 -16 -17 -17 -17 -17 -17 -17 -17 -17 -17 -17 -17 -17 -16
-9 -9 -9 -9 -9 -10 -10 -10 -11 -11 -13 -13 -14 -14 -14 -14 -14 -14 -14 -14 -14 -15 -15 -15 -15 -15 -16 -16 -16 -16 -17 -17 -17 -17 -17 -17 -17 -17 -17 -17 -17 -17 -17 -17
-9 -9 -9 -10 -10 -10 -11 -11 -13 -14 -14 -14 -14 -14 -14 -14 -14 -14 -14 -15 -15 -15 -15 -15 -15 -16 -16 -16 -16 -17 -17 -17 -17 -17 -17 -17 -17 -17 -17 -17 -17 -17 -17 -17
-10 -10 -10 -10 -10 -11 -11 -12 -13 -14 -14 -15 -15 -15 -14 -14 -14 -14 -15 -15 -15 -15 -15 -16 -16 -16 -16 -17 -17 -17 -17 -17 -17 -17 -17 -17 -17 -17 -17 -17 -17 -17 -17 -17
-10 -10 -10 -11 -11 -11 -12 -12 -13 -13 -15 -15 -15 -14 -14 -14 -15 -15 -15 -15 -16 -15 -16 -16 -16 -16 -17 -17 -17 -18 -17 -17 -18 -17 -17 -17 -18 -17 -17 -17 -17 -17 -17 -17
-11 -11 -11 -11 -12 -12 -12 -12 -13 -14 -15 -15 -14 -14 -14 -15 -15 -15 -15 -16 -16 -16 -16 -16 -16 -16 -17 -17 -17 -17 -17 -17 -17 -18 -18 -18 -18 -18 -17 -17 -17 -17 -17 -17
-11 -11 -11 -12 -12 -12 -12 -13 -14 -14 -15 -15 -14 -15 -15 -15 -15 -15 -16 -16 -16 -16 -16 -16 -16 -17 -17 -17 -17 -17 -17 -17 -17 -18 -18 -18 -18 -18 -17 -17 -17 -17 -17 -17
-11 -11 -12 -12 -12 -12 -13 -13 -14 -15 -15 -15 -15 -15 -15 -15 -15 -16 -16 -16 -16 -16 -16 -16 -17 -17 -17 -17 -17 -17 -17 -17 -17 -17 -18 -18 -18 -18 -17 -17 -17 -17 -17 -17
-12 -12 -12 -12 -12 -13 -13 -14 -14 -15 -15 -15 -15 -15 -15 -15 -15 -15 -16 -16 -16 -16 -16 -17 -17 -17 -17 -17 -17 -17 -17 -17 -17 -17 -18 -18 -18 -18 -18 -18 -18 -17 -17 -17
-12 -12 -12 -12 -13 -13 -14 -14 -15 -15 -15 -15 -15 -15 -15 -15 -15 -15 -15 -16 -16 -16 -16 -16 -17 -17 -17 -17 -17 -17 -17 -17 -17 -17 -18 -18 -18 -18 -18 -18 -18 -18 -18 -17

GFSNGP_700_temp_006.txt.gz
Temp
-0 -0 -0 -1 -0 1 1 1 1 1 2 2 2 2 1 0 -0 -2 -2 -2 -1 -3 -3 -3 -3 -3 -3 -4 -5 -6 -7 -8 -9 -9 -10 -10 -10 -11 -12 -13 -13 -13 -13 -13
-1 -1 -1 -1 -0 1 0 1 1 2 2 2 2 1 0 -2 -2 -2 -2 -2 -2 -3 -3 -3 -4 -4 -4 -6 -7 -8 -8 -8 -10 -10 -10 -11 -12 -12 -13 -13 -14 -14 -14 -14
-2 -1 -2 -2 1 2 1 1 1 1 1 1 0 -1 -2 -1 -2 -2 -3 -4 -4 -3 -4 -4 -4 -5 -5 -7 -7 -7 -8 -10 -10 -10 -10 -12 -12 -13 -13 -14 -14 -14 -14 -14
-2 -2 -2 1 1 2 1 1 0 0 0 -0 -1 -1 -1 -2 -3 -3 -4 -4 -4 -4 -4 -5 -5 -5 -6 -8 -8 -8 -9 -9 -9 -11 -12 -12 -13 -14 -14 -14 -14 -14 -14 -14
-2 -2 -2 -2 1 1 0 -0 -0 -2 -1 -2 -2 -2 -2 -3 -4 -4 -4 -4 -5 -5 -5 -5 -6 -6 -8 -8 -9 -9 -9 -10 -11 -12 -13 -13 -14 -14 -14 -14 -14 -14 -14 -14
-2 -2 -2 -1 -0 -1 -1 -2 -1 -2 -2 -3 -3 -3 -3 -4 -4 -4 -5 -5 -5 -5 -6 -6 -7 -7 -8 -9 -9 -11 -11 -12 -13 -13 -14 -14 -14 -14 -14 -14 -14 -14 -14 -14
-2 -3 -2 -1 -1 -2 -2 -2 -3 -3 -3 -3 -4 -4 -4 -4 -4 -5 -5 -5 -6 -6 -7 -7 -8 -9 -10 -11 -12 -12 -12 -13 -13 -14 -14 -14 -14 -14 -14 -14 -14 -14 -14 -14
-3 -3 -2 -1 -1 -2 -3 -3 -3 -3 -3 -4 -4 -4 -5 -5 -6 -6 -5 -6 -6 -7 -8 -8 -9 -10 -11 -12 -12 -13 -13 -13 -14 -14 -14 -14 -14 -15 -15 -15 -14 -14 -14 -14
-3 -2 -2 -2 -3 -3 -3 -4 -3 -4 -4 -4 -5 -5 -5 -5 -5 -6 -6 -7 -7 -8 -8 -10 -10 -11 -12 -12 -13 -13 -13 -14 -14 -14 -14 -15 -15 -15 -15 -15 -14 -14 -14 -14
-4 -2 -3 -3 -3 -4 -4 -4 -4 -4 -5 -5 -6 -6 -5 -6 -7 -7 -7 -8 -8 -9 -10 -11 -11 -12 -13 -13 -13 -13 -14 -14 -14 -14 -15 -15 -15 -15 -15 -15 -15 -14 -15 -15
-4 -3 -4 -3 -4 -4 -5 -5 -4 -5 -5 -5 -7 -5 -6 -6 -7 -7 -8 -9 -9 -10 -11 -11 -12 -13 -13 -13 -14 -14 -14 -14 -14 -15 -15 -15 -15 -15 -15 -15 -15 -15 -15 -15
-4 -4 -4 -4 -4 -5 -5 -4 -5 -6 -7 -5 -5 -6 -7 -7 -8 -8 -9 -9 -11 -12 -12 -13 -14 -14 -14 -14 -14 -14 -14 -15 -15 -15 -15 -15 -15 -15 -15 -15 -16 -15 -15 -16
-4 -4 -4 -5 -4 -5 -5 -5 -7 -8 -7 -6 -6 -6 -7 -7 -8 -9 -10 -11 -12 -12 -13 -14 -14 -14 -14 -14 -14 -14 -15 -15 -15 -15 -16 -16 -16 -16 -15 -15 -16 -16 -16 -16
-5 -5 -5 -5 -5 -6 -7 -7 -8 -8 -7 -7 -7 -7 -7 -8 -9 -11 -11 -12 -12 -13 -14 -14 -14 -14 -14 -14 -14 -15 -15 -15 -15 -16 -16 -16 -16 -16 -16 -16 -15 -16 -16 -16
-5 -5 -6 -6 -6 -6 -7 -9 -7 -7 -7 -7 -8 -8 -8 -10 -11 -12 -12 -13 -13 -14 -14 -14 -14 -14 -14 -14 -15 -15 -15 -15 -15 -16 -16 -16 -16 -16 -16 -16 -16 -16 -16 -16
-6 -6 -7 -7 -7 -6 -7 -7 -8 -8 -8 -9 -8 -9 -10 -11 -12 -12 -13 -14 -15 -15 -14 -14 -14 -14 -14 -15 -15 -16 -16 -16 -16 -16 -16 -17 -17 -17 -16 -16 -17 -17 -17 -16
-6 -6 -7 -8 -8 -8 -9 -8 -9 -9 -9 -9 -9 -11 -12 -13 -13 -14 -15 -15 -14 -14 -14 -14 -15 -15 -15 -15 -15 -16 -16 -16 -17 -17 -17 -17 -17 -17 -17 -17 -17 -17 -17 -17
-7 -8 -9 -9 -9 -9 -9 -9 -10 -10 -10 -10 -11 -12 -13 -14 -14 -14 -15 -14 -14 -14 -15 -15 -15 -15 -15 -16 -16 -16 -16 -17 -17 -17 -17 -17 -17 -17 -17 -17 -17 -17 -18 -17
-8 -8 -8 -9 -9 -10 -10 -10 -10 -10 -11 -12 -12 -13 -14 -14 -14 -14 -14 -14 -14 -15 -15 -15 -15 -15 -16 -16 -16 -17 -17 -17 -17 -17 -17 -17 -17 -17 -17 -17 -17 -18 -18 -18
-8 -9 -9 -9 -10 -10 -10 -10 -11 -11 -12 -12 -12 -13 -14 -14 -15 -14 -14 -15 -15 -15 -15 -15 -16 -16 -16 -16 -17 -17 -17 -17 -17 -17 -17 -17 -18 -18 -18 -17 -18 -18 -18 -18
-9 -9 -9 -10 -10 -10 -11 -11 -11 -12 -12 -12 -13 -14 -14 -14 -14 -14 -15 -15 -15 -15 -15 -16 -16 -16 -16 -16 -17 -17 -17 -18 -18 -17 -17 -18 -18 -18 -18 -18 -18 -18 -18 -18
-10 -10 -10 -10 -11 -10 -11 -11 -12 -12 -12 -13 -14 -14 -15 -14 -14 -15 -15 -15 -15 -16 -16 -16 -16 -16 -16 -17 -17 -17 -17 -18 -17 -17 -17 -18 -18 -18 -18 -18 -18 -18 -18 -18
-11 -11 -11 -11 -10 -11 -11 -12 -12 -12 -13 -13 -14 -15 -14 -14 -15 -15 -15 -15 -15 -16 -16 -16 -16 -16 -17 -17 -17 -17 -17 -17 -17 -17 -17 -18 -18 -18 -18 -18 -18 -18 -18 -18
-11 -11 -11 -11 -11 -12 -12 -12 -12 -13 -13 -14 -15 -15 -15 -15 -15 -15 -15 -15 -15 -16 -16 -16 -16 -16 -17 -17 -17 -17 -17 -17 -17 -17 -17 -18 -18 -18 -18 -18 -18 -18 -18 -17
-12 -12 -12 -12 -12 -12 -12 -12 -13 -13 -14 -14 -15 -15 -15 -15 -15 -15 -15 -15 -15 -16 -16 -16 -16 -16 -16 -17 -17 -17 -17 -17 -17 -17 -17 -18 -18 -18 -18 -18 -18 -18 -18 -17
-13 -13 -12 -12 -12 -12 -12 -13 -13 -14 -14 -15 -15 -15 -15 -15 -15 -15 -15 -15 -15 -16 -16 -16 -16 -16 -16 -17 -17 -17 -17 -17 -17 -17 -17 -18 -18 -18 -18 -18 -18 -18 -18 -18
-13 -13 -12 -12 -12 -13 -13 -14 -14 -14 -15 -15 -15 -15 -15 -15 -15 -15 -15 -15 -15 -16 -16 -16 -16 -16 -16 -17 -17 -17 -17 -17 -17 -17 -17 -17 -18 -18 -18 -18 -18 -18 -18 -18

GFSNGP_700_temp_009.txt.gz
Temp
-0 -1 -1 -1 -1 0 -1 -0 -1 0 -0 1 1 0 0 -0 0 1 -0 -1 -2 -2 -2 -3 -3 -3 -4 -3 -4 -5 -7 -7 -7 -7 -8 -9 -10 -11 -11 -12 -13 -13 -13 -13
-1 0 -1 -1 1 1 1 1 0 1 0 1 -0 0 -0 -0 -0 -1 -2 -2 -3 -4 -4 -4 -4 -4 -4 -5 -6 -7 -8 -8 -8 -9 -9 -10 -10 -11 -12 -13 -13 -13 -14 -14
-2 -1 -2 -1 2 1 0 0 0 -0 -1 -1 -1 -2 -2 -2 -2 -3 -3 -4 -4 -4 -4 -4 -5 -5 -6 -6 -7 -7 -8 -8 -8 -9 -10 -10 -10 -12 -13 -13 -14 -14 -14 -14
-2 -2 -3 1 1 1 -0 -0 0 0 -0 -1 -1 -2 -2 -3 -3 -3 -4 -3 -4 -4 -5 -5 -5 -6 -6 -7 -7 -9 -9 -9 -9 -10 -10 -12 -13 -13 -14 -14 -14 -14 -14 -14
-2 -3 -2 -1 -0 -1 -1 -1 -1 -1 -2 -2 -2 -2 -2 -3 -4 -4 -4 -5 -5 -5 -5 -6 -6 -7 -7 -8 -8 -9 -9 -10 -10 -11 -13 -13 -14 -14 -14 -14 -14 -14 -14 -14
-2 -3 -4 -1 -1 -2 -2 -2 -2 -3 -3 -3 -3 -4 -4 -4 -5 -5 -6 -6 -5 -6 -7 -7 -8 -8 -8 -9 -10 -10 -11 -12 -12 -13 -13 -14 -14 -14 -14 -15 -15 -14 -14 -15
-1 -4 -3 -0 -2 -2 -3 -3 -4 -3 -4 -4 -4 -5 -4 -5 -5 -5 -5 -5 -6 -7 -7 -7 -8 -8 -10 -11 -11 -12 -12 -13 -13 -14 -14 -14 -14 -15 -15 -15 -15 -15 -15 -14
-3 -4 -3 -1 -1 -3 -4 -4 -4 -4 -4 -4 -4 -4 -4 -7 -6 -6 -6 -6 -6 -6 -7 -8 -8 -10 -11 -11 -12 -13 -13 -14 -14 -14 -14 -14 -15 -15 -15 -15 -15 -15 -14 -15
-3 -2 -2 -2 -3 -3 -4 -4 -4 -4 -5 -4 -5 -5 -6 -8 -7 -7 -7 -7 -7 -7 -8 -9 -10 -11 -11 -12 -13 -14 -14 -14 -14 -14 -14 -15 -15 -15 -15 -15 -15 -15 -15 -15
-4 -2 -2 -3 -3 -4 -4 -5 -4 -4 -4 -5 -5 -7 -8 -7 -7 -7 -7 -7 -8 -8 -9 -10 -11 -12 -13 -14 -14 -14 -14 -14 -14 -15 -15 -15 -15 -15 -16 -16 -15 -15 -15 -15
-4 -4 -4 -4 -4 -5 -5 -5 -4 -4 -5 -5 -7 -9 -8 -8 -7 -8 -8 -9 -10 -10 -12 -12 -12 -13 -14 -14 -14 -14 -14 -14 -15 -15 -15 -15 -16 -16 -16 -16 -16 -16 -16 -15
-4 -4 -5 -5 -5 -5 -5 -5 -5 -5 -6 -7 -8 -9 -8 -8 -8 -9 -10 -11 -11 -12 -12 -13 -14 -14 -15 -15 -15 -15 -15 -15 -15 -15 -15 -16 -16 -16 -16 -16 -16 -16 -16 -16
-4 -5 -5 -5 -5 -5 -6 -6 -6 -7 -7 -8 -8 -8 -8 -8 -9 -11 -11 -11 -12 -12 -12 -13 -15 -15 -15 -15 -15 -15 -15 -15 -15 -16 -16 -16 -16 -16 -16 -16 -17 -16 -16 -16
-4 -5 -5 -5 -5 -6 -6 -7 -8 -9 -8 -8 -8 -9 -9 -9 -10 -11 -12 -12 -12 -13 -14 -15 -15 -15 -15 -15 -15 -15 -15 -15 -16 -16 -16 -16 -16 -17 -17 -17 -16 -16 -17 -17
-6 -5 -5 -6 -6 -6 -7 -8 -10 -9 -9 -9 -9 -10 -10 -10 -11 -12 -12 -13 -13 -14 -15 -15 -15 -15 -15 -15 -15 -15 -15 -16 -16 -16 -16 -17 -17 -17 -17 -17 -17 -17 -17 -17
-6 -6 -6 -6 -7 -8 -9 -9 -8 -9 -10 -10 -10 -10 -10 -11 -12 -13 -13 -14 -14 -15 -14 -15 -15 -15 -15 -15 -15 -16 -16 -16 -16 -17 -17 -17 -17 -17 -17 -17 -17 -17 -17 -17
-7 -7 -8 -8 -8 -8 -8 -8 -9 -9 -10 -10 -11 -11 -11 -12 -13 -13 -14 -14 -14 -14 -14 -15 -15 -15 -15 -16 -16 -16 -16 -17 -17 -17 -17 -17 -17 -17 -17 -17 -17 -17 -18 -18
-7 -8 -9 -9 -9 -9 -9 -9 -10 -10 -10 -11 -12 -12 -12 -12 -13 -14 -14 -14 -14 -14 -15 -15 -15 -16 -16 -16 -16 -16 -17 -17 -17 -17 -17 -18 -18 -18 -18 -18 -18 -18 -18 -18
-9 -9 -9 -9 -9 -10 -10 -10 -10 -10 -10 -11 -12 -13 -12 -13 -14 -14 -14 -14 -14 -15 -15 -15 -16 -16 -16 -16 -16 -17 -17 -17 -17 -17 -18 -18 -18 -18 -18 -18 -18 -18 -18 -18
-9 -9 -9 -10 -10 -10 -10 -11 -10 -10 -11 -11 -12 -12 -12 -13 -14 -15 -14 -14 -15 -15 -15 -15 -16 -16 -16 -16 -17 -17 -17 -17 -17 -17 -18 -18 -18 -18 -18 -18 -18 -18 -19 -18
-10 -10 -10 -10 -10 -10 -11 -11 -10 -11 -11 -12 -12 -13 -13 -14 -15 -14 -15 -15 -15 -15 -15 -16 -16 -16 -16 -16 -16 -17 -17 -17 -17 -17 -18 -18 -18 -18 -18 -18 -18 -18 -18 -18
-10 -11 -11 -11 -11 -11 -11 -11 -11 -11 -12 -12 -13 -13 -14 -15 -15 -15 -15 -15 -15 -15 -15 -16 -16 -16 -16 -16 -17 -17 -17 -17 -17 -17 -18 -18 -18 -18 -18 -18 -18 -18 -18 -18
-12 -12 -12 -12 -12 -12 -12 -12 -12 -12 -12 -13 -13 -13 -14 -15 -15 -15 -15 -15 -15 -15 -16 -16 -16 -16 -16 -16 -17 -17 -17 -17 -17 -17 -18 -18 -18 -18 -18 -18 -18 -18 -18 -18
-12 -12 -13 -12 -13 -13 -12 -12 -12 -12 -12 -13 -13 -14 -15 -15 -15 -15 -15 -15 -15 -15 -16 -16 -16 -16 -16 -16 -17 -17 -17 -17 -17 -17 -17 -18 -18 -18 -18 -18 -18 -18 -18 -18
-13 -13 -13 -13 -13 -12 -12 -13 -12 -12 -13 -13 -14 -15 -15 -15 -15 -15 -15 -15 -15 -15 -16 -16 -16 -16 -16 -16 -16 -17 -17 -17 -17 -17 -17 -17 -18 -18 -18 -18 -18 -18 -18 -18
-13 -14 -14 -14 -14 -13 -13 -13 -13 -13 -13 -14 -15 -15 -15 -15 -15 -15 -15 -15 -15 -15 -16 -16 -16 -16 -16 -16 -16 -17 -17 -17 -17 -17 -17 -17 -18 -18 -18 -18 -18 -18 -18 -18
-14 -14 -14 -14 -14 -13 -13 -13 -13 -14 -14 -15 -15 -15 -15 -15 -15 -15 -15 -15 -15 -15 -16 -16 -16 -16 -16 -16 -16 -17 -17 -17 -17 -17 -17 -17 -17 -18 -18 -18 -18 -18 -18 -18

GFSNGP_700_temp_012.txt.gz
Temp
-0 -1 -1 -0 -0 0 -0 0 -2 1 -1 -1 -0 -1 -1 -1 -2 -2 -2 -2 -2 -3 -2 -3 -3 -3 -4 -4 -4 -5 -6 -6 -8 -9 -9 -9 -9 -9 -10 -11 -12 -12 -13 -13
1 -0 -1 0 1 1 -0 0 0 -1 -1 -1 -1 -1 -2 -2 -2 -2 -2 -2 -2 -3 -3 -4 -4 -4 -5 -5 -5 -6 -6 -7 -8 -9 -9 -9 -10 -11 -11 -11 -12 -13 -13 -13
-2 -1 -1 -1 1 0 -0 -0 -1 -2 -2 -1 -2 -2 -2 -2 -3 -3 -2 -4 -5 -5 -5 -5 -5 -5 -5 -5 -6 -6 -7 -8 -10 -10 -10 -10 -10 -11 -12 -12 -13 -13 -13 -14
-2 -2 -3 1 0 -0 -1 -1 -1 -1 -1 -1 -2 -3 -3 -3 -4 -4 -4 -4 -6 -6 -6 -6 -6 -6 -7 -7 -7 -8 -9 -10 -10 -11 -11 -11 -11 -13 -13 -13 -14 -14 -14 -14
-2 -3 -2 -1 -1 -1 -2 -2 -2 -3 -3 -3 -3 -2 -3 -4 -5 -5 -5 -6 -7 -6 -6 -6 -7 -7 -7 -9 -9 -9 -10 -11 -11 -12 -12 -13 -13 -14 -14 -14 -14 -14 -14 -14
-2 -4 -4 -1 -1 -2 -3 -2 -3 -3 -4 -4 -4 -5 -4 -4 -5 -5 -7 -8 -7 -7 -7 -7 -7 -7 -8 -9 -11 -11 -11 -12 -13 -13 -13 -14 -14 -14 -14 -14 -14 -15 -15 -15
-2 -3 -3 -1 -2 -2 -3 -3 -4 -5 -5 -4 -5 -5 -5 -5 -5 -6 -7 -8 -7 -7 -7 -8 -8 -9 -10 -11 -11 -12 -12 -13 -14 -14 -14 -14 -14 -14 -15 -15 -15 -15 -15 -15
-3 -4 -3 -1 -2 -3 -4 -4 -5 -4 -4 -5 -6 -5 -5 -6 -8 -8 -7 -7 -7 -7 -8 -8 -9 -10 -11 -12 -12 -13 -14 -14 -14 -14 -14 -14 -14 -15 -15 -15 -15 -16 -16 -15
-3 -2 -2 -2 -4 -4 -4 -4 -4 -4 -5 -5 -6 -5 -6 -7 -8 -7 -8 -7 -7 -8 -8 -9 -10 -11 -12 -13 -13 -14 -15 -15 -14 -14 -15 -15 -15 -15 -15 -15 -16 -16 -16 -15
-3 -2 -3 -3 -4 -4 -5 -5 -5 -5 -5 -5 -7 -8 -8 -8 -8 -8 -7 -8 -8 -9 -10 -11 -12 -12 -13 -14 -14 -15 -15 -14 -14 -14 -15 -15 -15 -16 -16 -16 -16 -16 -16 -15
-4 -3 -3 -4 -4 -5 -5 -5 -6 -6 -6 -6 -9 -9 -8 -8 -8 -8 -9 -9 -10 -11 -11 -11 -12 -13 -14 -14 -15 -15 -15 -15 -15 -15 -16 -16 -16 -16 -16 -17 -17 -16 -16 -16
-4 -4 -4 -4 -5 -5 -6 -6 -6 -6 -8 -8 -9 -9 -9 -9 -9 -10 -10 -10 -11 -12 -12 -12 -13 -13 -15 -15 -15 -15 -15 -15 -15 -16 -16 -16 -16 -16 -17 -17 -17 -17 -17 -16
-4 -4 -5 -5 -5 -5 -6 -6 -7 -8 -9 -9 -8 -8 -9 -9 -10 -10 -11 -12 -13 -13 -14 -14 -15 -15 -15 -15 -15 -15 -15 -15 -15 -16 -16 -16 -17 -17 -17 -17 -17 -17 -17 -17
-4 -5 -5 -5 -6 -5 -6 -7 -8 -8 -9 -8 -8 -9 -10 -10 -11 -11 -12 -13 -14 -15 -15 -16 -15 -15 -15 -15 -15 -16 -16 -16 -16 -16 -16 -17 -17 -17 -17 -17 -17 -17 -17 -18
-5 -5 -6 -6 -6 -7 -9 -10 -9 -9 -8 -9 -9 -10 -10 -10 -11 -12 -12 -13 -15 -15 -15 -15 -15 -15 -15 -15 -16 -16 -16 -16 -16 -16 -17 -17 -17 -18 -18 -18 -18 -18 -18 -18
-6 -6 -7 -7 -7 -8 -11 -9 -9 -9 -9 -9 -10 -10 -10 -11 -12 -12 -13 -13 -15 -15 -15 -15 -15 -15 -16 -16 -16 -16 -16 -16 -17 -17 -17 -18 -18 -18 -18 -18 -18 -18 -18 -18
-7 -8 -7 -8 -10 -10 -10 -9 -9 -9 -9 -10 -10 -10 -11 -12 -12 -12 -13 -14 -15 -15 -15 -15 -15 -16 -16 -16 -16 -16 -16 -17 -17 -18 -18 -18 -18 -18 -18 -18 -18 -18 -18 -18
-8 -8 -9 -11 -11 -10 -9 -9 -9 -9 -10 -10 -10 -10 -11 -12 -13 -13 -13 -15 -15 -15 -15 -15 -15 -16 -16 -16 -16 -16 -17 -17 -17 -18 -18 -18 -18 -18 -18 -18 -18 -18 -19 -18
-8 -9 -10 -10 -11 -11 -10 -10 -10 -10 -11 -11 -11 -11 -12 -13 -13 -13 -14 -15 -15 -15 -15 -15 -15 -15 -16 -16 -16 -17 -17 -17 -17 -17 -18 -18 -18 -18 -18 -18 -18 -18 -19 -19
-10 -10 -11 -10 -10 -10 -10 -11 -11 -11 -11 -11 -11 -12 -13 -13 -13 -14 -15 -15 -15 -15 -15 -15 -15 -15 -16 -16 -16 -17 -17 -17 -17 -17 -18 -18 -18 -18 -18 -18 -18 -18 -19 -19
-10 -10 -10 -10 -10 -11 -11 -12 -12 -12 -12 -12 -12 -12 -13 -13 -14 -14 -15 -15 -15 -15 -15 -15 -15 -16 -16 -16 -16 -17 -17 -17 -17 -17 -17 -18 -18 -18 -18 -18 -18 -19 -19 -19
-11 -11 -11 -11 -12 -12 -12 -12 -13 -13 -13 -12 -13 -13 -13 -14 -14 -15 -15 -15 -15 -15 -15 -15 -15 -16 -16 -16 -16 -17 -17 -17 -17 -17 -17 -17 -18 -18 -18 -18 -18 -18 -19 -19
-12 -12 -12 -12 -12 -13 -13 -13 -13 -13 -13 -13 -13 -13 -14 -14 -15 -15 -15 -15 -15 -15 -15 -15 -15 -16 -16 -16 -16 -17 -17 -17 -17 -17 -17 -17 -18 -18 -18 -18 -18 -18 -18 -18
-12 -12 -12 -13 -13 -13 -14 -14 -14 -14 -13 -13 -13 -14 -14 -15 -16 -15 -15 -15 -15 -15 -15 -15 -16 -16 -16 -16 -16 -17 -17 -17 -17 -17 -17 -17 -17 -18 -18 -18 -18 -18 -18 -18
-13 -13 -13 -13 -13 -14 -14 -14 -14 -13 -13 -13 -14 -14 -15 -16 -15 -15 -15 -15 -15 -15 -15 -15 -16 -16 -16 -16 -16 -16 -17 -17 -17 -17 -17 -17 -17 -18 -18 -18 -18 -18 -18 -19
-13 -13 -13 -13 -13 -14 -13 -14 -14 -13 -13 -14 -14 -14 -15 -16 -15 -15 -15 -15 -15 -15 -15 -16 -16 -16 -16 -16 -16 -16 -17 -17 -17 -17 -17 -18 -18 -18 -18 -18 -18 -18 -19 -19
-13 -13 -13 -13 -13 -13 -14 -13 -13 -14 -14 -14 -15 -15 -16 -15 -15 -15 -15 -16 -16 -16 -16 -16 -16 -16 -16 -16 -16 -16 -17 -17 -17 -17 -18 -18 -18 -18 -18 -18 -18 -18 -18 -19

GFSNGP_700_temp_015.txt.gz
Temp
-0 -1 -1 0 -0 1 -1 -0 -2 -0 -1 -0 -1 -2 -2 -2 -2 -3 -3 -3 -2 -3 -4 -4 -5 -5 -5 -5 -5 -5 -5 -6 -6 -7 -10 -10 -10 -10 -11 -11 -12 -12 -12 -12
-0 -0 -0 1 1 1 1 1 0 -1 -1 -1 -1 -3 -3 -3 -3 -3 -3 -3 -3 -5 -5 -5 -5 -5 -5 -5 -5 -5 -6 -7 -8 -9 -10 -10 -11 -11 -11 -11 -12 -13 -13 -13
-2 -1 -1 0 1 1 -0 -0 -1 -1 -1 -2 -3 -3 -3 -2 -3 -3 -3 -4 -5 -5 -6 -6 -6 -6 -6 -6 -6 -7 -8 -9 -10 -11 -11 -11 -12 -12 -12 -13 -13 -13 -13 -14
-3 -2 -4 1 0 -0 -1 -0 -1 -1 -2 -3 -2 -3 -3 -4 -4 -4 -5 -5 -5 -6 -6 -7 -7 -7 -7 -7 -8 -9 -10 -11 -11 -12 -12 -12 -13 -13 -13 -14 -14 -14 -14 -14
-2 -2 -2 -1 -0 -1 -1 -1 -2 -2 -2 -3 -4 -4 -4 -5 -5 -6 -5 -5 -7 -7 -7 -7 -7 -7 -7 -8 -9 -10 -11 -11 -12 -12 -13 -13 -14 -14 -14 -14 -14 -14 -14 -15
-2 -4 -4 -1 -1 -2 -2 -3 -2 -3 -4 -4 -5 -5 -5 -5 -6 -6 -7 -8 -7 -7 -7 -7 -7 -8 -9 -9 -10 -11 -12 -12 -13 -13 -14 -15 -14 -14 -14 -14 -14 -15 -15 -15
-2 -3 -2 -0 -1 -2 -3 -2 -4 -4 -5 -5 -5 -6 -6 -6 -6 -7 -8 -7 -7 -7 -8 -8 -8 -9 -10 -11 -12 -12 -12 -13 -14 -15 -15 -14 -14 -14 -14 -15 -15 -15 -15 -15
-3 -3 -3 -1 -2 -2 -3 -4 -4 -4 -5 -5 -5 -6 -6 -6 -8 -8 -8 -7 -7 -7 -8 -9 -9 -10 -11 -12 -12 -13 -14 -14 -15 -15 -15 -15 -15 -15 -15 -15 -15 -16 -16 -16
-3 -2 -2 -3 -3 -4 -4 -4 -4 -5 -5 -5 -6 -6 -7 -8 -8 -8 -8 -8 -8 -9 -9 -10 -11 -12 -12 -13 -14 -14 -14 -15 -16 -15 -15 -15 -15 -15 -15 -16 -16 -16 -16 -16
-3 -2 -2 -3 -4 -4 -4 -4 -5 -5 -5 -6 -6 -7 -9 -8 -8 -8 -9 -9 -10 -10 -10 -11 -12 -13 -13 -13 -14 -14 -15 -16 -15 -15 -15 -15 -15 -16 -16 -16 -17 -17 -16 -16
-3 -3 -3 -4 -3 -4 -5 -4 -5 -5 -6 -6 -8 -9 -8 -8 -8 -9 -9 -10 -10 -11 -11 -13 -13 -13 -13 -14 -15 -15 -16 -16 -16 -16 -16 -16 -16 -16 -17 -17 -17 -17 -17 -17
-3 -4 -4 -4 -4 -4 -4 -5 -6 -6 -7 -8 -9 -8 -8 -9 -9 -9 -10 -10 -11 -12 -13 -13 -14 -14 -15 -15 -15 -16 -16 -16 -16 -16 -16 -16 -16 -17 -18 -18 -18 -18 -18 -17
-4 -5 -5 -4 -4 -5 -6 -7 -6 -8 -9 -9 -9 -9 -9 -9 -10 -10 -10 -11 -12 -12 -13 -14 -15 -15 -15 -15 -15 -16 -16 -16 -16 -16 -16 -16 -17 -17 -17 -17 -18 -18 -18 -18
-5 -5 -5 -5 -5 -5 -6 -7 -7 -9 -11 -10 -9 -9 -9 -10 -10 -10 -11 -11 -12 -13 -13 -14 -15 -15 -15 -15 -16 -16 -16 -16 -16 -16 -17 -17 -17 -17 -18 -18 -18 -18 -18 -18
-5 -6 -6 -7 -7 -7 -7 -8 -9 -9 -10 -10 -10 -10 -10 -10 -10 -10 -11 -12 -13 -13 -14 -14 -15 -15 -15 -15 -16 -16 -16 -16 -16 -17 -17 -17 -18 -18 -18 -18 -18 -18 -18 -18
-6 -6 -7 -8 -8 -8 -8 -9 -11 -11 -10 -10 -10 -10 -10 -10 -10 -11 -12 -12 -13 -13 -14 -14 -15 -15 -15 -16 -16 -16 -16 -16 -17 -17 -17 -17 -18 -18 -18 -18 -18 -18 -18 -19
-7 -8 -8 -8 -8 -8 -9 -10 -11 -11 -11 -10 -10 -10 -10 -11 -11 -11 -12 -13 -13 -14 -14 -15 -15 -15 -15 -16 -16 -16 -16 -16 -17 -17 -17 -18 -18 -18 -18 -18 -18 -18 -19 -19
-9 -8 -8 -9 -10 -10 -10 -10 -10 -11 -11 -11 -11 -11 -11 -11 -12 -12 -13 -13 -13 -14 -15 -15 -15 -15 -15 -15 -16 -16 -16 -16 -17 -17 -17 -18 -18 -18 -18 -18 -18 -19 -19 -19
-9 -10 -10 -10 -11 -12 -11 -11 -11 -11 -11 -12 -12 -12 -12 -13 -13 -13 -13 -14 -14 -15 -15 -15 -15 -15 -15 -15 -16 -16 -16 -17 -17 -17 -17 -17 -18 -18 -18 -18 -18 -19 -19 -19
-11 -11 -11 -11 -10 -11 -11 -11 -12 -12 -12 -13 -13 -13 -13 -13 -13 -13 -14 -14 -15 -15 -15 -15 -15 -15 -15 -15 -16 -16 -16 -17 -17 -17 -17 -17 -18 -18 -18 -18 -18 -18 -19 -19
-11 -11 -11 -11 -11 -11 -11 -12 -12 -13 -13 -13 -14 -14 -14 -13 -14 -14 -14 -14 -15 -15 -15 -15 -15 -15 -15 -16 -16 -16 -16 -17 -17 -17 -17 -17 -18 -18 -18 -18 -18 -18 -18 -19
-11 -11 -11 -11 -12 -12 -12 -12 -13 -13 -14 -14 -14 -14 -14 -14 -14 -14 -14 -15 -15 -15 -15 -15 -15 -15 -15 -16 -16 -16 -16 -17 -17 -17 -17 -17 -17 -18 -18 -18 -18 -18 -18 -19
-12 -12 -12 -12 -12 -13 -13 -13 -13 -14 -14 -14 -14 -14 -14 -14 -14 -15 -15 -16 -15 -15 -15 -15 -15 -15 -15 -16 -16 -16 -16 -17 -17 -17 -17 -17 -18 -18 -18 -18 -18 -18 -18 -19
-12 -12 -12 -13 -13 -13 -13 -13 -13 -13 -13 -14 -14 -13 -14 -14 -15 -15 -16 -16 -15 -15 -15 -15 -15 -15 -16 -16 -16 -16 -16 -16 -17 -17 -17 -17 -18 -18 -18 -18 -18 -18 -19 -19
-13 -13 -13 -13 -13 -13 -13 -13 -13 -13 -13 -13 -13 -14 -14 -15 -15 -16 -16 -15 -16 -16 -16 -15 -15 -16 -16 -16 -16 -16 -16 -16 -17 -17 -17 -17 -18 -18 -18 -18 -18 -18 -18 -19
-13 -13 -13 -13 -14 -14 -13 -13 -14 -14 -14 -14 -14 -14 -15 -15 -16 -16 -16 -16 -16 -16 -16 -16 -16 -16 -16 -16 -16 -16 -17 -17 -17 -17 -17 -18 -18 -18 -18 -18 -18 -18 -18 -19
-13 -13 -13 -13 -13 -14 -13 -13 -13 -14 -14 -14 -14 -15 -15 -16 -16 -16 -16 -16 -16 -16 -16 -16 -16 -16 -16 -16 -17 -17 -17 -17 -17 -17 -18 -18 -18 -18 -18 -18 -18 -18 -18 -18

GFSNGP_700_temp_021.txt.gz
Temp
1 1 1 1 1 0 -1 -0 -3 1 -0 1 -1 -2 -1 -2 -2 -2 -3 -3 -4 -4 -4 -5 -6 -6 -5 -5 -5 -5 -6 -6 -7 -8 -9 -10 -11 -11 -12 -12 -12 -13 -13 -14
1 1 1 1 2 1 0 0 -1 -1 -0 -1 -1 -1 -2 -3 -3 -4 -4 -4 -4 -4 -4 -6 -6 -6 -6 -5 -6 -6 -7 -8 -9 -10 -11 -12 -12 -12 -13 -13 -14 -14 -14 -14
-0 -0 0 1 2 2 1 0 -0 -1 -0 -1 -1 -2 -3 -3 -3 -3 -4 -3 -4 -5 -6 -7 -6 -6 -6 -6 -7 -8 -9 -10 -10 -11 -12 -12 -12 -13 -13 -14 -15 -15 -15 -15
-1 -1 -2 1 0 -0 -1 0 -1 -1 -1 -2 -2 -2 -2 -3 -3 -4 -4 -5 -6 -6 -7 -7 -7 -7 -7 -8 -8 -9 -10 -11 -12 -12 -13 -13 -13 -14 -14 -15 -15 -15 -15 -15
-3 -4 -2 -1 -0 -1 -2 -2 -1 -2 -2 -2 -2 -3 -4 -4 -5 -5 -6 -6 -8 -8 -7 -7 -8 -8 -8 -9 -9 -10 -11 -12 -13 -13 -14 -14 -15 -15 -15 -15 -15 -15 -15 -15
-4 -4 -3 -1 -1 -2 -2 -2 -2 -3 -3 -4 -4 -4 -4 -5 -5 -5 -7 -9 -8 -8 -8 -8 -8 -9 -9 -9 -10 -11 -12 -13 -14 -14 -14 -15 -15 -15 -15 -16 -16 -16 -16 -16
-3 -4 -3 -2 -2 -2 -3 -3 -4 -4 -4 -4 -5 -5 -5 -5 -6 -7 -9 -9 -8 -8 -8 -9 -9 -9 -9 -10 -11 -12 -13 -14 -14 -15 -15 -15 -15 -16 -16 -16 -16 -16 -16 -16
-4 -4 -3 -2 -3 -4 -4 -4 -4 -4 -4 -5 -5 -6 -5 -7 -8 -9 -9 -9 -8 -8 -9 -9 -10 -10 -10 -11 -12 -13 -14 -15 -15 -15 -15 -15 -16 -16 -16 -16 -16 -16 -16 -17
-4 -3 -2 -3 -4 -4 -4 -4 -4 -4 -5 -5 -5 -5 -6 -7 -8 -9 -9 -9 -9 -9 -9 -10 -11 -11 -12 -12 -13 -14 -15 -15 -15 -15 -16 -16 -16 -16 -16 -16 -16 -17 -17 -17
-4 -2 -3 -4 -4 -4 -4 -4 -5 -5 -5 -6 -6 -7 -7 -8 -9 -10 -9 -9 -9 -9 -9 -10 -11 -12 -13 -13 -14 -14 -15 -15 -15 -16 -16 -16 -16 -16 -17 -17 -17 -17 -17 -18
-3 -2 -4 -3 -4 -4 -5 -5 -6 -6 -6 -7 -7 -8 -9 -9 -9 -9 -9 -9 -10 -10 -10 -11 -12 -13 -14 -14 -14 -14 -15 -15 -15 -16 -16 -16 -16 -17 -17 -17 -17 -18 -18 -18
-4 -3 -4 -5 -4 -6 -5 -6 -6 -7 -8 -8 -8 -9 -9 -9 -9 -10 -10 -10 -11 -11 -11 -11 -12 -13 -14 -14 -14 -15 -15 -15 -16 -16 -16 -16 -16 -17 -18 -18 -18 -18 -18 -18
-4 -5 -5 -4 -5 -6 -7 -7 -8 -8 -9 -9 -9 -10 -10 -10 -10 -10 -11 -11 -12 -12 -12 -12 -13 -14 -14 -14 -14 -15 -15 -15 -16 -16 -16 -16 -16 -17 -17 -18 -18 -18 -18 -18
-5 -5 -5 -5 -7 -7 -7 -8 -9 -9 -10 -10 -10 -10 -10 -10 -10 -11 -12 -12 -12 -12 -13 -13 -13 -14 -14 -14 -15 -15 -15 -15 -15 -16 -16 -16 -17 -17 -17 -17 -18 -18 -18 -18
-5 -6 -6 -7 -7 -8 -9 -9 -9 -9 -10 -10 -10 -10 -10 -11 -11 -11 -12 -13 -13 -13 -14 -14 -14 -14 -14 -15 -15 -15 -15 -15 -16 -16 -16 -16 -17 -17 -17 -18 -18 -18 -18 -19
-6 -7 -7 -8 -9 -10 -10 -10 -10 -10 -10 -10 -10 -10 -11 -11 -12 -12 -13 -13 -14 -14 -14 -14 -15 -14 -14 -16 -15 -15 -15 -15 -16 -16 -16 -16 -17 -17 -17 -17 -18 -18 -18 -18
-7 -8 -8 -9 -9 -8 -9 -10 -10 -10 -10 -10 -11 -11 -12 -12 -13 -13 -13 -14 -14 -14 -14 -15 -15 -15 -15 -15 -15 -15 -15 -16 -16 -16 -16 -17 -17 -17 -17 -17 -18 -18 -18 -18
-8 -9 -9 -9 -9 -9 -10 -10 -10 -11 -11 -12 -12 -12 -12 -13 -13 -13 -14 -14 -14 -14 -15 -15 -15 -15 -16 -15 -15 -15 -16 -16 -16 -16 -17 -17 -17 -17 -17 -17 -18 -18 -18 -18
-9 -9 -9 -10 -10 -10 -11 -11 -11 -12 -12 -12 -12 -12 -13 -13 -14 -14 -14 -14 -15 -15 -15 -15 -15 -16 -15 -15 -15 -15 -16 -16 -16 -16 -17 -17 -17 -17 -17 -18 -18 -18 -18 -18
-10 -10 -10 -11 -11 -11 -12 -12 -12 -12 -13 -13 -13 -13 -13 -13 -14 -14 -14 -14 -15 -15 -15 -16 -16 -15 -15 -15 -15 -15 -16 -16 -16 -16 -17 -17 -17 -17 -17 -18 -18 -18 -18 -18
-11 -11 -11 -11 -12 -12 -12 -13 -13 -13 -13 -13 -13 -13 -13 -13 -13 -14 -14 -14 -14 -15 -16 -16 -16 -15 -15 -15 -15 -16 -16 -16 -16 -16 -17 -17 -17 -18 -18 -18 -18 -18 -18 -19
-11 -11 -12 -12 -12 -12 -12 -13 -13 -13 -13 -13 -13 -13 -13 -13 -13 -13 -14 -14 -15 -16 -16 -16 -16 -16 -16 -16 -16 -16 -16 -16 -16 -16 -17 -17 -17 -18 -18 -18 -18 -18 -18 -19
-12 -12 -12 -12 -13 -12 -13 -13 -13 -13 -13 -13 -13 -13 -13 -13 -14 -14 -14 -15 -15 -16 -16 -16 -16 -16 -16 -16 -16 -16 -16 -16 -16 -16 -17 -17 -17 -18 -18 -18 -18 -18 -18 -19
-12 -12 -13 -13 -13 -13 -13 -13 -13 -13 -13 -13 -14 -14 -13 -14 -14 -14 -15 -15 -16 -16 -16 -16 -16 -16 -16 -16 -16 -16 -16 -16 -16 -17 -17 -17 -18 -18 -18 -18 -18 -19 -19 -19
-13 -13 -13 -13 -13 -13 -13 -13 -13 -13 -13 -14 -14 -14 -14 -14 -15 -15 -15 -16 -16 -16 -16 -16 -16 -16 -16 -16 -16 -16 -16 -16 -16 -17 -17 -17 -18 -18 -18 -18 -19 -19 -19 -19
-13 -13 -13 -13 -13 -13 -13 -13 -13 -13 -13 -14 -14 -14 -14 -15 -15 -15 -16 -16 -16 -16 -16 -16 -16 -16 -16 -16 -16 -16 -16 -16 -16 -17 -17 -17 -18 -18 -18 -18 -19 -19 -19 -19
-14 -14 -14 -13 -13 -13 -13 -13 -13 -13 -14 -14 -14 -15 -15 -15 -15 -16 -16 -16 -16 -16 -16 -16 -16 -16 -16 -16 -16 -16 -17 -17 -17 -17 -17 -17 -18 -18 -18 -18 -19 -19 -19 -19

GFSNGP_700_temp_024.txt.gz
Temp
2 2 1 -0 0 -0 -1 -1 -1 0 1 1 -0 -1 -1 -1 -2 -2 -3 -4 -4 -4 -5 -5 -5 -6 -6 -6 -6 -6 -6 -6 -7 -8 -9 -10 -12 -12 -12 -12 -13 -13 -14 -14
2 2 2 1 1 -1 -1 -1 -1 -1 -1 -1 -1 -1 -1 -2 -2 -3 -4 -4 -4 -5 -5 -6 -6 -6 -6 -6 -6 -7 -7 -8 -9 -10 -11 -12 -12 -13 -13 -13 -14 -14 -15 -15
0 1 0 0 1 1 0 -1 -2 -1 -1 -2 -2 -3 -3 -3 -3 -4 -4 -5 -5 -6 -6 -7 -7 -6 -6 -7 -7 -8 -9 -9 -10 -11 -12 -13 -13 -14 -14 -14 -15 -15 -15 -15
-1 -1 -0 0 0 -0 -0 -0 -1 -2 -2 -2 -2 -3 -3 -4 -4 -4 -4 -5 -5 -6 -7 -8 -7 -7 -7 -8 -8 -9 -9 -11 -11 -12 -13 -14 -14 -14 -15 -15 -15 -15 -15 -16
-2 -3 -1 -0 -1 -1 -2 -1 -2 -2 -2 -2 -3 -4 -4 -4 -4 -4 -5 -5 -6 -7 -8 -8 -8 -8 -8 -9 -9 -10 -11 -11 -12 -13 -14 -14 -14 -15 -15 -15 -15 -16 -16 -16
-3 -3 -1 -0 -2 -2 -2 -2 -3 -3 -3 -3 -3 -4 -4 -4 -5 -5 -6 -7 -8 -9 -9 -8 -8 -8 -9 -10 -10 -11 -11 -12 -13 -14 -15 -15 -15 -15 -15 -16 -16 -16 -16 -16
-4 -4 -3 -2 -2 -2 -3 -3 -4 -4 -4 -5 -4 -5 -5 -6 -5 -6 -7 -9 -8 -9 -9 -9 -9 -9 -10 -10 -11 -11 -12 -13 -14 -15 -15 -15 -15 -15 -15 -16 -16 -16 -16 -16
-3 -4 -4 -2 -3 -4 -4 -4 -4 -4 -5 -5 -5 -5 -6 -6 -7 -8 -8 -8 -9 -9 -9 -9 -9 -10 -10 -11 -12 -12 -13 -14 -15 -15 -15 -15 -16 -16 -16 -16 -16 -16 -17 -17
-3 -2 -3 -3 -3 -4 -4 -4 -5 -4 -5 -5 -6 -6 -7 -8 -9 -9 -9 -9 -9 -10 -10 -10 -10 -11 -11 -12 -12 -13 -13 -14 -15 -15 -15 -16 -16 -16 -16 -16 -16 -17 -17 -17
-4 -2 -4 -4 -4 -3 -4 -5 -5 -6 -6 -7 -7 -8 -8 -8 -9 -9 -9 -9 -9 -10 -10 -11 -11 -11 -12 -12 -13 -14 -14 -14 -15 -15 -16 -16 -16 -16 -16 -17 -17 -17 -17 -18
-4 -3 -4 -4 -4 -4 -5 -5 -6 -6 -7 -7 -9 -9 -9 -9 -9 -9 -10 -10 -11 -11 -12 -12 -12 -12 -13 -13 -13 -14 -14 -15 -15 -15 -16 -16 -16 -16 -17 -17 -17 -17 -18 -18
-4 -4 -4 -4 -4 -5 -6 -6 -7 -7 -7 -9 -9 -9 -10 -10 -10 -10 -10 -11 -12 -12 -12 -13 -13 -13 -14 -14 -14 -14 -14 -15 -15 -16 -16 -16 -16 -16 -16 -17 -17 -17 -18 -18
-4 -4 -5 -5 -6 -6 -7 -7 -7 -8 -9 -10 -10 -10 -10 -10 -10 -11 -12 -12 -12 -13 -13 -13 -14 -14 -14 -14 -14 -14 -15 -15 -15 -15 -16 -16 -16 -16 -17 -17 -17 -17 -18 -18
-5 -5 -5 -6 -6 -7 -7 -8 -9 -10 -10 -10 -10 -10 -10 -10 -11 -12 -12 -12 -13 -13 -13 -14 -14 -14 -15 -15 -14 -14 -16 -15 -15 -16 -16 -16 -16 -17 -17 -17 -17 -18 -18 -18
-6 -6 -6 -6 -7 -7 -8 -9 -10 -10 -10 -10 -10 -10 -11 -11 -11 -12 -12 -13 -13 -14 -14 -14 -14 -15 -15 -15 -15 -16 -16 -15 -16 -16 -16 -16 -16 -17 -17 -17 -17 -17 -18 -18
-7 -7 -7 -8 -8 -9 -9 -10 -10 -10 -10 -10 -10 -11 -11 -12 -12 -12 -13 -14 -14 -14 -14 -14 -15 -15 -15 -15 -15 -16 -16 -16 -16 -16 -16 -16 -16 -17 -17 -17 -17 -17 -18 -18
-8 -8 -8 -9 -9 -9 -9 -10 -10 -10 -11 -11 -11 -12 -12 -12 -12 -13 -13 -13 -14 -14 -14 -14 -15 -15 -15 -15 -16 -16 -16 -16 -16 -16 -16 -16 -17 -17 -17 -17 -17 -18 -18 -18
-8 -8 -9 -9 -9 -10 -10 -11 -11 -11 -12 -12 -12 -12 -12 -13 -13 -13 -13 -13 -13 -14 -14 -14 -15 -15 -16 -16 -16 -16 -15 -16 -16 -16 -16 -16 -17 -17 -17 -17 -18 -18 -18 -18
-9 -9 -9 -10 -10 -11 -11 -11 -12 -12 -12 -12 -13 -13 -13 -13 -13 -13 -13 -13 -13 -14 -14 -14 -15 -15 -16 -16 -15 -15 -16 -16 -16 -16 -16 -16 -17 -17 -17 -17 -18 -18 -18 -18
-10 -10 -10 -11 -11 -11 -11 -12 -12 -12 -13 -13 -13 -13 -13 -13 -13 -13 -13 -13 -13 -14 -14 -15 -15 -16 -16 -16 -15 -15 -15 -16 -16 -16 -16 -16 -17 -17 -17 -18 -18 -18 -18 -18
-10 -11 -11 -11 -11 -11 -12 -12 -13 -13 -13 -13 -13 -13 -13 -13 -13 -13 -13 -13 -14 -14 -15 -15 -16 -16 -16 -16 -16 -16 -16 -16 -16 -16 -16 -16 -17 -17 -18 -18 -18 -18 -18 -18
-11 -11 -11 -11 -12 -12 -12 -12 -13 -13 -13 -13 -13 -13 -13 -13 -13 -14 -14 -14 -14 -15 -15 -16 -16 -16 -16 -16 -16 -16 -16 -16 -16 -16 -16 -17 -17 -17 -18 -18 -18 -18 -18 -18
-11 -11 -12 -12 -12 -12 -12 -13 -12 -13 -13 -13 -13 -13 -13 -14 -14 -14 -15 -15 -15 -15 -16 -16 -16 -16 -16 -16 -16 -16 -16 -16 -16 -16 -17 -17 -17 -17 -18 -18 -18 -18 -18 -19
-12 -12 -12 -12 -13 -13 -13 -12 -13 -13 -13 -13 -13 -13 -14 -14 -14 -14 -15 -15 -16 -16 -16 -16 -16 -16 -16 -16 -16 -16 -16 -16 -16 -16 -17 -17 -17 -17 -18 -18 -18 -18 -19 -19
-12 -12 -13 -13 -13 -13 -13 -13 -13 -13 -13 -13 -13 -13 -14 -14 -15 -15 -15 -15 -16 -16 -16 -16 -16 -16 -16 -16 -16 -16 -16 -16 -17 -17 -17 -17 -17 -17 -18 -18 -18 -18 -19 -19
-13 -13 -13 -13 -13 -13 -13 -13 -13 -13 -14 -13 -14 -14 -14 -14 -15 -15 -15 -16 -16 -16 -16 -16 -16 -16 -16 -16 -16 -16 -16 -17 -17 -17 -17 -17 -17 -18 -18 -18 -18 -18 -19 -19
-13 -14 -14 -14 -14 -14 -13 -14 -14 -14 -14 -14 -14 -14 -14 -14 -15 -15 -16 -16 -16 -16 -16 -16 -16 -16 -16 -16 -16 -16 -16 -17 -17 -17 -17 -17 -18 -18 -18 -18 -18 -18 -19 -19

GFSNGP_700_temp_030.txt.gz
Temp
3 3 3 3 3 3 3 3 3 3 3 3 1 1 0 -1 -1 -1 -1 -1 -1 -2 -3 -4 -4 -4 -6 -7 -7 -8 -8 -8 -8 -8 -8 -8 -9 -10 -11 -11 -12 -14 -14 -14
4 3 2 3 2 2 3 3 3 2 2 1 1 0 -0 -1 -0 -1 -2 -2 -3 -3 -3 -3 -4 -6 -7 -8 -9 -8 -9 -10 -10 -11 -11 -10 -11 -12 -12 -14 -14 -14 -15 -15
2 2 2 3 2 2 2 2 2 1 1 1 -1 -1 -1 -1 -1 -2 -2 -3 -3 -4 -4 -6 -6 -9 -9 -9 -10 -10 -10 -11 -11 -12 -12 -13 -12 -14 -14 -14 -15 -15 -15 -15
2 1 1 3 2 1 1 1 1 0 0 -2 -3 -3 -2 -2 -3 -4 -5 -5 -5 -5 -6 -7 -9 -8 -9 -9 -10 -10 -11 -11 -12 -12 -12 -13 -13 -15 -15 -15 -15 -15 -15 -15
0 -1 0 1 1 0 0 -0 -1 -1 -1 -1 -1 -2 -3 -4 -4 -4 -5 -5 -5 -7 -8 -9 -9 -9 -9 -10 -10 -11 -11 -12 -12 -12 -12 -13 -14 -15 -15 -15 -15 -15 -15 -16
-2 -3 -1 1 0 -1 -1 -1 -2 -1 -2 -2 -2 -3 -3 -4 -4 -5 -5 -5 -7 -9 -9 -9 -10 -10 -10 -11 -11 -12 -11 -11 -11 -12 -13 -13 -14 -14 -15 -15 -15 -15 -16 -16
-3 -3 -2 -1 -1 -1 -2 -2 -2 -2 -2 -3 -3 -3 -4 -5 -5 -5 -8 -9 -9 -9 -9 -10 -10 -11 -11 -12 -12 -12 -12 -11 -13 -12 -13 -14 -14 -15 -15 -15 -15 -15 -16 -16
-3 -3 -3 -2 -2 -2 -2 -2 -3 -3 -4 -4 -4 -4 -5 -5 -7 -8 -9 -9 -10 -10 -10 -11 -11 -12 -13 -13 -13 -13 -13 -13 -13 -13 -14 -14 -15 -15 -16 -16 -16 -16 -16 -16
-1 -0 -1 -2 -3 -3 -3 -3 -3 -4 -4 -5 -5 -6 -6 -7 -8 -9 -10 -9 -10 -10 -11 -11 -12 -13 -13 -13 -14 -14 -13 -13 -14 -14 -14 -14 -15 -16 -16 -16 -16 -16 -16 -16
-1 -1 -2 -2 -2 -2 -3 -3 -4 -4 -5 -5 -6 -7 -8 -9 -9 -9 -10 -10 -12 -11 -11 -13 -13 -13 -13 -14 -14 -14 -14 -14 -14 -15 -15 -15 -15 -16 -16 -16 -16 -16 -16 -17
-1 -1 -2 -2 -3 -3 -4 -4 -4 -5 -6 -7 -7 -8 -8 -9 -9 -9 -10 -11 -11 -12 -13 -13 -14 -13 -13 -14 -14 -14 -14 -14 -15 -15 -15 -15 -16 -16 -16 -16 -16 -16 -17 -17
-2 -2 -2 -3 -3 -4 -4 -4 -5 -6 -7 -7 -8 -9 -9 -9 -9 -10 -11 -11 -12 -12 -12 -13 -13 -13 -13 -14 -14 -14 -14 -15 -15 -15 -15 -16 -16 -16 -16 -16 -16 -17 -17 -17
-2 -2 -3 -4 -4 -4 -5 -6 -6 -7 -8 -8 -8 -9 -9 -9 -10 -11 -11 -12 -12 -12 -12 -13 -13 -13 -14 -14 -14 -14 -14 -14 -15 -15 -15 -15 -15 -16 -16 -16 -16 -17 -17 -17
-3 -3 -4 -4 -5 -6 -6 -6 -7 -8 -8 -8 -9 -9 -10 -10 -11 -11 -11 -12 -12 -12 -13 -13 -13 -13 -14 -14 -14 -14 -15 -15 -15 -15 -15 -15 -16 -16 -16 -16 -16 -17 -17 -17
-3 -4 -4 -5 -6 -6 -7 -8 -8 -8 -8 -9 -9 -10 -11 -11 -11 -11 -11 -12 -12 -12 -13 -13 -13 -13 -13 -14 -14 -14 -15 -15 -15 -15 -15 -15 -16 -16 -16 -16 -16 -17 -17 -17
-5 -5 -6 -6 -7 -7 -8 -8 -8 -9 -9 -9 -10 -10 -11 -11 -12 -12 -12 -12 -12 -12 -13 -13 -13 -13 -13 -14 -14 -15 -15 -15 -15 -15 -15 -16 -16 -16 -16 -16 -17 -17 -17 -18
-6 -6 -6 -7 -7 -8 -8 -9 -9 -9 -9 -10 -10 -11 -11 -12 -12 -12 -12 -12 -13 -13 -13 -13 -13 -13 -14 -14 -15 -15 -15 -15 -15 -15 -15 -16 -16 -16 -16 -16 -17 -17 -18 -18
-6 -7 -8 -8 -9 -9 -9 -9 -9 -10 -10 -10 -11 -11 -12 -12 -12 -12 -12 -12 -13 -13 -13 -13 -14 -14 -14 -15 -15 -15 -15 -15 -15 -15 -15 -16 -16 -16 -16 -16 -17 -17 -18 -18
-7 -8 -8 -9 -9 -9 -9 -9 -10 -10 -11 -11 -12 -12 -12 -12 -12 -12 -12 -13 -13 -13 -13 -14 -14 -14 -15 -15 -15 -15 -15 -16 -15 -16 -16 -16 -16 -16 -16 -16 -17 -17 -18 -18
-8 -8 -9 -9 -9 -9 -10 -10 -10 -11 -11 -12 -12 -12 -12 -12 -12 -12 -13 -13 -13 -13 -14 -14 -14 -15 -15 -16 -16 -16 -16 -16 -16 -16 -16 -16 -16 -16 -16 -17 -17 -17 -17 -18
-8 -9 -9 -10 -10 -10 -11 -11 -11 -11 -12 -13 -13 -13 -13 -13 -13 -13 -13 -13 -13 -14 -14 -15 -15 -15 -15 -15 -16 -16 -16 -16 -16 -16 -16 -16 -16 -16 -16 -17 -17 -17 -17 -18
-10 -10 -10 -10 -10 -11 -11 -11 -12 -12 -12 -13 -13 -13 -13 -13 -13 -13 -14 -14 -14 -14 -15 -15 -15 -16 -16 -16 -16 -16 -16 -16 -16 -16 -16 -16 -16 -17 -17 -17 -17 -17 -17 -18
-10 -10 -11 -11 -11 -11 -11 -12 -12 -13 -13 -13 -13 -13 -13 -13 -14 -14 -14 -14 -14 -14 -15 -15 -15 -16 -16 -16 -16 -16 -16 -16 -16 -16 -16 -16 -17 -17 -17 -17 -17 -17 -18 -18
-11 -11 -11 -11 -12 -12 -12 -13 -13 -13 -14 -13 -13 -13 -14 -13 -14 -14 -14 -14 -14 -15 -15 -15 -16 -16 -16 -16 -16 -16 -16 -16 -16 -16 -16 -16 -17 -17 -17 -17 -17 -17 -18 -18
-11 -11 -12 -12 -12 -13 -13 -14 -14 -14 -14 -14 -14 -14 -14 -14 -14 -14 -14 -14 -15 -15 -15 -15 -16 -16 -16 -16 -16 -16 -16 -16 -16 -16 -16 -17 -17 -17 -17 -17 -17 -18 -18 -18
-12 -12 -12 -13 -14 -14 -14 -14 -14 -14 -14 -14 -14 -14 -14 -14 -14 -14 -14 -14 -14 -15 -15 -15 -16 -16 -16 -16 -16 -16 -16 -16 -16 -16 -16 -17 -17 -17 -17 -18 -18 -18 -18 -18
-12 -13 -13 -14 -14 -14 -14 -14 -14 -14 -14 -14 -14 -14 -14 -14 -14 -14 -14 -14 -14 -15 -15 -15 -16 -16 -16 -16 -16 -16 -16 -16 -16 -16 -17 -17 -17 -18 -18 -18 -18 -18 -18 -18

GFSNGP_700_temp_033.txt.gz
Temp
4 4 4 3 3 3 3 3 3 3 3 2 1 1 0 -0 -1 -1 -1 -1 -1 -2 -2 -3 -3 -4 -4 -5 -6 -6 -7 -8 -9 -10 -10 -10 -10 -12 -12 -13 -12 -13 -14 -15
4 3 3 3 3 2 2 2 2 2 2 1 1 0 0 -0 -1 -1 -1 -1 -2 -3 -3 -4 -4 -5 -6 -7 -8 -9 -9 -10 -10 -11 -12 -11 -12 -12 -13 -13 -12 -13 -14 -16
3 3 3 2 2 2 2 2 2 1 1 1 0 0 0 -0 -1 -1 -1 -2 -3 -4 -4 -5 -6 -7 -9 -10 -10 -10 -10 -10 -10 -11 -11 -12 -12 -12 -12 -13 -14 -14 -15 -15
2 2 -3 2 2 2 1 1 1 0 0 0 -1 -1 -1 -1 -1 -2 -2 -3 -4 -5 -6 -8 -9 -10 -9 -9 -10 -10 -11 -11 -11 -12 -12 -13 -12 -13 -13 -14 -14 -15 -15 -15
1 1 2 2 1 1 1 -0 0 0 -0 -0 -1 -2 -2 -2 -2 -3 -4 -5 -5 -7 -8 -8 -9 -9 -9 -10 -10 -11 -11 -12 -12 -12 -13 -12 -13 -13 -14 -14 -15 -15 -15 -16
0 -0 -4 1 -0 -0 -1 -1 -0 -1 -1 -1 -1 -2 -3 -3 -3 -4 -5 -5 -6 -8 -8 -9 -9 -10 -10 -10 -11 -12 -12 -13 -13 -13 -14 -13 -14 -14 -14 -14 -15 -15 -15 -16
-1 -2 0 1 0 0 -1 -0 -1 -1 -2 -2 -3 -3 -4 -4 -5 -5 -6 -7 -8 -8 -9 -9 -10 -10 -11 -11 -12 -13 -13 -13 -14 -14 -14 -14 -14 -14 -15 -15 -15 -15 -16 -16
-1 -3 -2 -0 -1 -1 -1 -1 -2 -2 -2 -3 -4 -4 -4 -5 -6 -7 -7 -8 -8 -9 -9 -10 -11 -11 -12 -13 -14 -13 -14 -14 -14 -14 -14 -14 -15 -15 -15 -15 -15 -16 -16 -16
0 1 0 -1 -1 -1 -2 -2 -2 -3 -3 -4 -4 -5 -5 -6 -7 -8 -8 -8 -9 -10 -10 -11 -11 -12 -13 -14 -13 -13 -14 -14 -14 -14 -15 -15 -15 -15 -15 -15 -16 -16 -16 -16
-1 -1 -1 -1 -2 -2 -2 -3 -3 -3 -4 -4 -5 -6 -7 -7 -8 -8 -8 -9 -10 -10 -10 -11 -12 -13 -13 -13 -13 -13 -14 -14 -14 -14 -14 -15 -15 -15 -16 -16 -16 -16 -16 -17
-0 -1 -1 -1 -2 -2 -2 -3 -4 -4 -5 -5 -6 -7 -7 -8 -8 -8 -9 -9 -10 -11 -11 -12 -12 -13 -13 -13 -13 -13 -14 -14 -14 -14 -14 -14 -15 -15 -15 -16 -16 -16 -16 -17
-1 -1 -1 -2 -3 -3 -4 -4 -5 -5 -6 -7 -7 -8 -8 -8 -9 -9 -9 -10 -11 -11 -11 -12 -12 -12 -13 -13 -13 -13 -14 -14 -14 -14 -15 -15 -15 -15 -16 -16 -16 -16 -17 -17
-1 -1 -2 -3 -3 -4 -5 -5 -6 -6 -7 -7 -8 -8 -9 -9 -9 -9 -10 -11 -11 -11 -12 -12 -12 -12 -12 -13 -13 -13 -14 -14 -14 -14 -15 -15 -15 -15 -15 -16 -16 -16 -17 -17
-2 -3 -3 -4 -4 -5 -6 -6 -6 -7 -8 -8 -9 -9 -9 -9 -9 -10 -11 -11 -12 -12 -12 -12 -12 -12 -12 -13 -13 -13 -14 -14 -15 -15 -15 -15 -15 -15 -15 -16 -16 -16 -17 -17
-3 -4 -4 -5 -5 -6 -6 -6 -7 -8 -9 -9 -9 -9 -9 -9 -10 -11 -11 -12 -12 -12 -12 -12 -12 -12 -13 -13 -13 -14 -14 -15 -15 -15 -15 -15 -15 -15 -16 -16 -16 -16 -17 -17
-4 -5 -5 -6 -6 -6 -7 -8 -9 -9 -9 -9 -9 -9 -10 -10 -11 -12 -12 -12 -12 -12 -12 -12 -12 -13 -13 -13 -14 -14 -15 -15 -15 -15 -15 -15 -15 -15 -16 -16 -16 -16 -17 -17
-5 -5 -5 -6 -7 -7 -8 -9 -9 -9 -9 -9 -10 -10 -10 -11 -12 -12 -12 -12 -12 -12 -13 -13 -13 -13 -14 -14 -14 -15 -15 -15 -15 -15 -15 -15 -15 -16 -16 -16 -16 -16 -17 -17
-5 -6 -6 -7 -8 -9 -9 -9 -9 -9 -10 -10 -10 -11 -11 -12 -12 -12 -12 -12 -12 -13 -13 -13 -13 -14 -14 -15 -15 -15 -15 -15 -15 -16 -16 -16 -16 -16 -16 -16 -16 -16 -17 -17
-6 -7 -8 -8 -9 -9 -9 -9 -9 -10 -10 -11 -11 -11 -12 -12 -12 -12 -13 -12 -13 -13 -13 -14 -14 -14 -15 -15 -15 -16 -16 -16 -16 -16 -16 -16 -16 -16 -16 -16 -16 -16 -17 -17
-7 -7 -8 -9 -9 -9 -10 -10 -10 -10 -11 -11 -12 -12 -12 -13 -13 -13 -13 -13 -14 -14 -14 -14 -14 -15 -15 -16 -16 -16 -16 -16 -16 -16 -16 -16 -16 -16 -16 -16 -16 -17 -17 -17
-8 -8 -9 -9 -10 -10 -10 -10 -11 -11 -11 -12 -12 -13 -13 -13 -13 -13 -13 -13 -14 -14 -14 -14 -15 -15 -15 -16 -16 -16 -16 -16 -16 -16 -16 -16 -16 -16 -16 -17 -17 -17 -17 -17
-9 -10 -10 -10 -10 -10 -11 -11 -11 -12 -12 -13 -13 -13 -13 -13 -13 -13 -13 -14 -14 -14 -14 -14 -15 -15 -16 -16 -16 -16 -16 -16 -16 -16 -16 -16 -16 -16 -16 -17 -17 -17 -17 -17
-10 -10 -10 -11 -11 -11 -11 -12 -12 -13 -13 -13 -13 -13 -13 -13 -14 -13 -13 -14 -14 -14 -14 -15 -15 -15 -16 -16 -16 -16 -16 -16 -16 -16 -16 -16 -16 -16 -17 -17 -17 -17 -17 -18
-10 -10 -10 -11 -11 -11 -11 -12 -13 -14 -14 -14 -14 -14 -14 -14 -14 -14 -14 -14 -14 -14 -14 -14 -15 -15 -16 -16 -16 -16 -17 -17 -16 -16 -16 -16 -16 -17 -17 -17 -17 -17 -17 -18
-11 -11 -11 -11 -12 -12 -13 -14 -14 -14 -14 -14 -14 -14 -14 -14 -14 -14 -14 -14 -14 -14 -14 -15 -15 -15 -16 -16 -16 -17 -17 -16 -16 -16 -16 -16 -17 -17 -17 -17 -17 -18 -18 -18
-11 -12 -12 -12 -13 -14 -14 -14 -14 -14 -14 -14 -14 -15 -15 -14 -14 -14 -14 -14 -14 -15 -15 -15 -15 -16 -16 -16 -16 -16 -17 -17 -17 -17 -17 -17 -17 -18 -18 -18 -18 -18 -18 -19
-12 -13 -13 -14 -14 -14 -14 -15 -15 -15 -15 -15 -15 -15 -15 -15 -15 -15 -15 -15 -15 -15 -15 -15 -15 -16 -16 -16 -16 -16 -16 -17 -17 -17 -17 -17 -17 -17 -18 -18 -18 -18 -18 -19

GFSNGP_700_temp_036.txt.gz
Temp
4 4 4 4 4 3 3 3 2 2 2 1 1 1 1 0 -0 -1 -1 -1 -2 -1 -1 -1 -2 -3 -4 -5 -6 -7 -8 -9 -9 -10 -10 -11 -11 -12 -12 -12 -13 -12 -14 -14
4 4 4 4 3 3 3 2 2 1 1 1 0 0 -0 -0 -1 -1 -1 -1 -1 -1 -2 -3 -3 -4 -5 -6 -7 -9 -10 -10 -11 -11 -11 -12 -12 -13 -13 -13 -13 -14 -14 -14
4 4 3 3 3 3 2 2 2 1 1 1 -0 -1 -1 -1 -1 -1 -1 -2 -2 -2 -3 -4 -5 -5 -7 -9 -10 -10 -10 -10 -10 -11 -12 -13 -13 -14 -14 -13 -14 -15 -15 -15
3 3 -3 2 3 2 2 2 1 1 0 -0 -1 -1 -0 -1 -1 -1 -2 -2 -3 -4 -5 -5 -6 -8 -9 -10 -10 -10 -10 -10 -11 -12 -13 -13 -14 -14 -13 -13 -14 -15 -15 -15
2 2 3 3 2 2 1 1 1 1 0 -0 -1 -1 -1 -2 -2 -3 -3 -3 -4 -5 -6 -7 -8 -9 -9 -10 -10 -10 -11 -12 -13 -14 -14 -14 -14 -14 -14 -14 -14 -15 -15 -16
1 1 -4 2 2 2 1 1 2 1 0 -1 -2 -2 -2 -2 -3 -4 -4 -5 -6 -6 -7 -8 -9 -9 -10 -10 -10 -11 -12 -13 -14 -14 -13 -14 -14 -14 -14 -14 -15 -15 -16 -16
1 0 1 2 1 1 -1 1 -0 -1 -2 -2 -2 -2 -3 -4 -4 -4 -5 -6 -7 -8 -8 -9 -9 -10 -10 -11 -11 -12 -13 -13 -13 -14 -14 -14 -15 -14 -15 -16 -16 -16 -16 -16
-0 -1 -0 2 1 0 0 -0 -1 -2 -2 -3 -3 -3 -4 -4 -5 -6 -6 -7 -8 -8 -9 -9 -10 -11 -11 -11 -12 -12 -13 -13 -13 -14 -14 -14 -14 -14 -15 -15 -16 -16 -16 -16
2 2 2 1 0 -0 -1 -2 -2 -2 -3 -4 -4 -4 -5 -5 -6 -7 -7 -8 -8 -9 -9 -10 -11 -11 -11 -12 -12 -12 -13 -13 -14 -14 -14 -14 -14 -14 -15 -15 -16 -16 -16 -16
1 1 1 -0 -1 -1 -2 -2 -2 -3 -4 -4 -4 -5 -5 -6 -7 -8 -8 -8 -9 -9 -10 -11 -11 -11 -12 -12 -12 -12 -13 -13 -13 -14 -14 -14 -14 -15 -15 -15 -16 -16 -16 -16
0 0 -0 -1 -1 -2 -2 -3 -3 -4 -4 -5 -5 -6 -6 -8 -8 -8 -9 -9 -9 -10 -11 -11 -11 -11 -12 -12 -12 -13 -13 -13 -13 -14 -14 -14 -15 -15 -15 -15 -16 -16 -16 -16
0 -0 -1 -1 -2 -2 -3 -3 -4 -5 -6 -6 -6 -7 -8 -8 -8 -9 -9 -9 -10 -10 -11 -11 -11 -12 -12 -12 -12 -13 -13 -13 -14 -14 -14 -15 -15 -15 -15 -15 -16 -16 -16 -16
-0 -1 -1 -2 -3 -3 -4 -4 -4 -6 -6 -6 -7 -8 -8 -9 -9 -9 -9 -10 -11 -11 -11 -12 -12 -12 -12 -12 -12 -13 -13 -13 -14 -14 -15 -15 -15 -15 -16 -16 -16 -16 -16 -17
-1 -2 -3 -3 -4 -4 -4 -4 -5 -6 -6 -8 -9 -9 -9 -9 -9 -10 -10 -11 -11 -11 -12 -12 -12 -12 -13 -13 -13 -13 -13 -14 -14 -15 -15 -15 -15 -15 -15 -15 -16 -16 -16 -16
-2 -3 -3 -4 -4 -4 -5 -5 -6 -7 -8 -9 -9 -9 -9 -9 -10 -10 -11 -11 -11 -12 -12 -12 -12 -13 -13 -13 -13 -13 -14 -14 -15 -15 -15 -15 -15 -15 -15 -16 -16 -16 -16 -16
-3 -4 -4 -4 -5 -5 -6 -7 -8 -9 -9 -9 -9 -9 -10 -10 -10 -11 -11 -12 -12 -12 -12 -12 -13 -13 -13 -14 -14 -14 -14 -15 -15 -15 -16 -15 -15 -16 -16 -16 -16 -16 -16 -17
-4 -5 -4 -5 -5 -6 -7 -8 -9 -9 -9 -9 -9 -10 -10 -10 -11 -11 -12 -12 -12 -13 -13 -13 -13 -14 -14 -14 -14 -15 -15 -15 -15 -16 -16 -16 -16 -16 -16 -16 -16 -16 -16 -17
-5 -5 -5 -6 -7 -8 -9 -9 -9 -9 -10 -10 -10 -10 -11 -11 -11 -12 -12 -13 -13 -13 -13 -13 -14 -14 -14 -14 -15 -15 -15 -15 -16 -16 -16 -16 -16 -16 -16 -16 -16 -16 -17 -17
-6 -6 -7 -8 -8 -9 -9 -10 -10 -10 -10 -10 -11 -11 -11 -12 -12 -13 -13 -13 -13 -13 -13 -13 -14 -14 -14 -15 -15 -15 -16 -16 -16 -16 -16 -16 -16 -16 -16 -16 -16 -17 -17 -17
-8 -9 -9 -9 -9 -9 -10 -10 -10 -10 -10 -11 -11 -12 -12 -13 -13 -13 -13 -13 -14 -13 -13 -14 -14 -14 -14 -15 -15 -16 -16 -16 -16 -16 -16 -16 -16 -17 -17 -17 -17 -17 -17 -17
-9 -9 -9 -9 -10 -10 -10 -10 -10 -11 -11 -12 -12 -13 -13 -13 -14 -13 -13 -13 -14 -14 -14 -14 -14 -14 -15 -15 -15 -16 -16 -16 -16 -16 -16 -16 -16 -16 -16 -17 -17 -17 -17 -17
-9 -10 -10 -10 -10 -10 -11 -11 -11 -11 -12 -12 -13 -14 -14 -13 -13 -13 -14 -14 -14 -14 -14 -14 -14 -14 -15 -15 -15 -16 -16 -16 -16 -17 -17 -16 -16 -16 -17 -17 -17 -17 -17 -17
-11 -11 -11 -11 -11 -11 -11 -11 -12 -12 -12 -13 -14 -14 -14 -13 -13 -14 -14 -14 -14 -14 -14 -14 -14 -14 -15 -15 -15 -16 -16 -16 -16 -17 -17 -16 -16 -16 -17 -17 -17 -17 -17 -17
-11 -11 -11 -11 -11 -11 -11 -12 -13 -13 -14 -14 -14 -14 -14 -14 -14 -14 -14 -14 -14 -14 -14 -14 -14 -14 -15 -15 -15 -16 -16 -16 -17 -17 -17 -17 -17 -17 -17 -17 -17 -17 -17 -18
-11 -11 -11 -11 -11 -12 -13 -13 -13 -14 -14 -14 -14 -15 -15 -15 -15 -15 -15 -15 -15 -15 -15 -15 -15 -15 -15 -15 -16 -16 -16 -17 -17 -17 -17 -17 -17 -17 -17 -17 -18 -18 -18 -18
-11 -12 -12 -12 -13 -13 -14 -14 -14 -14 -15 -15 -15 -15 -15 -15 -15 -15 -15 -15 -15 -15 -15 -16 -16 -16 -16 -16 -16 -16 -16 -17 -17 -17 -17 -17 -17 -17 -17 -17 -17 -18 -18 -18
-12 -12 -13 -13 -13 -14 -14 -14 -15 -15 -15 -15 -15 -15 -15 -15 -15 -15 -16 -16 -16 -16 -16 -16 -16 -16 -16 -16 -16 -16 -17 -17 -17 -17 -17 -17 -17 -18 -18 -18 -18 -18 -19 -19

GFSNGP_700_temp_042.txt.gz
Temp
5 5 5 5 4 4 4 3 3 4 3 3 2 2 1 1 0 -0 -0 -1 -2 -2 -3 -3 -3 -3 -4 -4 -5 -5 -6 -6 -7 -8 -8 -9 -10 -10 -11 -12 -12 -13 -13 -14
4 4 4 4 4 4 4 3 3 3 4 3 2 2 1 1 0 -1 -1 -2 -2 -2 -3 -3 -3 -3 -4 -5 -5 -6 -6 -7 -8 -9 -9 -10 -11 -11 -12 -13 -13 -13 -14 -15
4 4 4 3 5 5 5 5 4 3 3 2 2 1 1 0 -0 -1 -2 -2 -3 -3 -3 -3 -4 -5 -5 -6 -6 -6 -7 -8 -9 -9 -10 -11 -12 -12 -13 -13 -13 -14 -14 -14
3 3 -3 5 5 5 5 4 3 3 2 2 1 0 -0 -1 -1 -2 -3 -3 -3 -3 -3 -4 -5 -6 -6 -6 -7 -7 -8 -9 -10 -10 -11 -12 -12 -12 -13 -13 -13 -14 -14 -14
3 2 3 5 5 5 5 4 3 3 2 1 1 0 -0 -1 -2 -3 -3 -3 -4 -4 -5 -6 -6 -6 -6 -7 -8 -8 -9 -10 -10 -11 -11 -12 -12 -13 -13 -13 -14 -14 -14 -15
2 1 -5 4 5 4 4 3 3 2 1 1 0 -0 -1 -2 -3 -3 -4 -4 -5 -5 -6 -7 -7 -7 -7 -8 -8 -9 -10 -11 -11 -11 -12 -12 -13 -13 -13 -14 -14 -15 -15 -15
1 0 2 3 3 3 1 3 2 2 1 0 -0 -2 -2 -3 -3 -4 -4 -5 -6 -7 -7 -7 -7 -8 -8 -8 -9 -10 -11 -11 -11 -12 -12 -12 -13 -13 -13 -14 -15 -15 -16 -16
1 -0 1 3 3 2 2 1 1 1 -0 -1 -2 -3 -3 -3 -4 -4 -5 -6 -7 -7 -7 -8 -8 -8 -8 -9 -10 -11 -11 -12 -12 -12 -12 -13 -13 -14 -14 -14 -15 -15 -16 -16
2 3 3 2 2 1 1 0 -0 -1 -1 -2 -3 -3 -3 -4 -4 -5 -6 -7 -8 -8 -8 -8 -8 -9 -9 -10 -11 -11 -12 -12 -12 -12 -13 -13 -13 -14 -14 -15 -15 -16 -16 -16
1 2 2 1 1 0 -0 -1 -1 -2 -2 -3 -3 -4 -5 -4 -5 -6 -7 -8 -8 -8 -8 -9 -9 -10 -10 -11 -11 -12 -12 -12 -13 -13 -13 -13 -14 -14 -15 -15 -16 -16 -16 -16
1 1 1 0 0 -0 -1 -1 -2 -2 -3 -3 -4 -4 -4 -5 -7 -8 -9 -9 -8 -9 -9 -9 -10 -10 -11 -11 -12 -12 -12 -13 -13 -13 -14 -14 -14 -15 -15 -15 -16 -16 -16 -16
0 0 -0 -0 -1 -1 -1 -2 -2 -3 -3 -4 -5 -4 -5 -7 -8 -9 -9 -9 -9 -9 -9 -10 -10 -11 -11 -12 -12 -12 -13 -13 -13 -13 -14 -14 -15 -15 -16 -16 -16 -16 -16 -16
-0 -0 -1 -1 -1 -2 -2 -3 -4 -4 -4 -4 -4 -5 -7 -8 -9 -10 -9 -9 -9 -10 -10 -10 -11 -11 -12 -12 -13 -13 -13 -13 -14 -14 -15 -15 -15 -15 -16 -16 -16 -16 -16 -16
-0 -1 -1 -1 -2 -2 -3 -4 -5 -4 -4 -5 -6 -8 -8 -9 -10 -9 -9 -9 -10 -10 -11 -11 -11 -12 -13 -13 -13 -13 -13 -14 -14 -14 -15 -15 -15 -16 -16 -16 -16 -16 -16 -16
-1 -1 -1 -2 -2 -3 -4 -5 -5 -5 -6 -7 -8 -9 -10 -10 -9 -9 -10 -10 -10 -11 -11 -12 -12 -13 -13 -13 -13 -13 -14 -14 -14 -15 -15 -15 -16 -16 -16 -16 -16 -16 -16 -16
-2 -2 -3 -4 -4 -5 -4 -5 -5 -7 -8 -9 -10 -10 -10 -10 -10 -10 -10 -11 -11 -11 -12 -12 -13 -13 -13 -13 -13 -14 -14 -14 -15 -15 -16 -16 -16 -16 -16 -16 -16 -16 -17 -17
-3 -3 -4 -4 -5 -5 -6 -7 -8 -9 -10 -11 -11 -10 -10 -10 -10 -10 -11 -11 -12 -12 -13 -13 -13 -13 -13 -14 -14 -14 -14 -15 -15 -15 -16 -16 -16 -16 -16 -16 -16 -17 -17 -17
-4 -6 -6 -5 -6 -7 -8 -9 -10 -11 -11 -10 -10 -10 -10 -10 -11 -11 -11 -12 -13 -13 -13 -13 -13 -13 -14 -14 -14 -14 -15 -15 -15 -15 -16 -16 -16 -17 -17 -17 -17 -17 -17 -17
-7 -6 -7 -8 -8 -9 -10 -11 -11 -11 -10 -10 -10 -10 -10 -11 -11 -11 -12 -13 -14 -14 -14 -13 -14 -14 -14 -14 -14 -14 -15 -15 -15 -15 -16 -16 -16 -17 -17 -17 -17 -17 -17 -17
-7 -8 -9 -10 -11 -11 -11 -11 -10 -10 -10 -10 -10 -10 -11 -11 -12 -12 -13 -13 -14 -14 -14 -14 -14 -15 -15 -15 -15 -15 -15 -15 -15 -15 -16 -16 -16 -17 -17 -17 -17 -17 -17 -17
-9 -10 -11 -11 -10 -10 -10 -10 -10 -10 -10 -11 -11 -11 -11 -12 -13 -14 -14 -14 -14 -15 -14 -15 -15 -15 -15 -15 -15 -15 -15 -15 -15 -16 -16 -16 -17 -17 -17 -17 -17 -17 -17 -17
-10 -10 -10 -10 -10 -10 -11 -11 -11 -11 -11 -11 -11 -12 -12 -13 -14 -14 -15 -15 -15 -15 -15 -15 -15 -15 -15 -15 -16 -16 -16 -16 -16 -16 -16 -17 -17 -17 -17 -17 -17 -17 -17 -17
-10 -10 -11 -11 -11 -11 -11 -11 -11 -11 -11 -12 -12 -12 -13 -14 -15 -16 -15 -16 -16 -16 -16 -16 -16 -16 -16 -16 -16 -16 -16 -16 -16 -16 -16 -17 -17 -17 -17 -17 -17 -17 -17 -17
-11 -11 -11 -11 -11 -12 -11 -12 -12 -12 -12 -12 -13 -13 -14 -14 -15 -16 -16 -16 -16 -16 -17 -17 -16 -16 -16 -17 -17 -17 -17 -17 -17 -17 -17 -17 -17 -17 -17 -17 -17 -17 -17 -17
-12 -12 -12 -12 -12 -12 -12 -12 -13 -13 -13 -13 -13 -14 -14 -15 -15 -16 -16 -16 -16 -17 -17 -17 -17 -17 -17 -17 -17 -17 -17 -17 -17 -17 -17 -17 -17 -17 -17 -18 -18 -18 -18 -18
-12 -12 -12 -13 -13 -13 -13 -13 -13 -13 -13 -13 -13 -14 -14 -15 -15 -16 -16 -16 -17 -17 -17 -17 -17 -17 -17 -17 -17 -17 -17 -17 -17 -17 -17 -17 -17 -18 -18 -18 -18 -18 -18 -18
-13 -13 -13 -13 -13 -13 -13 -13 -13 -13 -14 -14 -14 -15 -15 -16 -16 -16 -17 -17 -18 -18 -17 -17 -17 -18 -18 -18 -18 -18 -18 -18 -17 -18 -18 -18 -18 -18 -18 -19 -19 -19 -19 -19

GFSNGP_700_temp_045.txt.gz
Temp
5 5 5 5 5 4 4 4 4 5 5 5 4 3 2 1 1 1 0 -0 -1 -1 -2 -3 -3 -3 -4 -4 -5 -5 -6 -6 -6 -7 -8 -8 -9 -10 -10 -11 -12 -12 -13 -13
4 4 5 5 4 4 4 4 4 4 5 4 3 3 2 1 1 0 -0 -1 -2 -2 -3 -3 -3 -4 -5 -5 -6 -6 -6 -6 -7 -8 -9 -9 -10 -10 -11 -12 -12 -13 -13 -13
4 4 3 3 5 5 5 5 5 4 5 3 3 2 2 1 0 -0 -1 -2 -2 -3 -3 -3 -4 -5 -5 -6 -6 -6 -7 -7 -8 -9 -9 -10 -10 -11 -11 -12 -13 -13 -13 -14
3 3 1 5 5 5 5 6 5 5 4 3 2 2 1 1 -0 -1 -2 -2 -3 -3 -3 -4 -5 -5 -6 -6 -7 -7 -7 -8 -9 -9 -10 -11 -11 -11 -12 -12 -13 -13 -14 -14
3 2 4 5 5 5 5 5 5 4 3 2 1 1 1 0 -1 -2 -3 -3 -3 -4 -4 -5 -5 -6 -7 -7 -7 -7 -8 -9 -9 -10 -11 -11 -12 -12 -12 -12 -13 -13 -14 -15
2 2 -0 4 5 4 4 3 4 3 2 1 1 1 0 -1 -2 -3 -3 -3 -4 -4 -4 -5 -6 -7 -7 -7 -7 -8 -9 -9 -10 -11 -11 -12 -12 -12 -12 -13 -13 -14 -14 -15
2 1 2 4 3 3 2 2 2 2 1 1 1 0 -1 -2 -3 -3 -3 -4 -4 -5 -6 -7 -7 -7 -7 -8 -8 -9 -9 -10 -11 -11 -12 -12 -12 -13 -13 -13 -14 -14 -15 -16
2 0 1 3 2 2 2 2 1 0 0 -0 -1 -1 -2 -3 -3 -4 -4 -4 -5 -6 -7 -8 -8 -8 -8 -8 -9 -9 -10 -11 -11 -12 -12 -12 -13 -13 -13 -14 -14 -15 -15 -16
2 3 2 2 1 1 1 0 -0 -1 -1 -2 -2 -2 -3 -3 -4 -4 -5 -5 -6 -8 -9 -9 -8 -8 -9 -9 -10 -10 -11 -11 -12 -12 -12 -13 -13 -13 -14 -14 -15 -15 -15 -16
1 2 1 1 0 0 -0 -1 -1 -1 -2 -2 -2 -3 -3 -4 -4 -5 -5 -7 -8 -9 -10 -9 -9 -9 -9 -10 -10 -11 -11 -12 -12 -12 -13 -13 -13 -14 -14 -15 -15 -16 -16 -16
1 1 0 0 -0 -1 -1 -1 -1 -2 -2 -3 -3 -4 -4 -4 -4 -5 -7 -8 -9 -10 -9 -9 -9 -10 -10 -10 -11 -12 -12 -13 -13 -13 -13 -14 -14 -14 -15 -15 -15 -16 -16 -16
0 -0 -0 -0 -1 -1 -1 -2 -2 -2 -3 -4 -4 -4 -5 -4 -6 -8 -9 -10 -10 -9 -9 -10 -10 -10 -11 -11 -12 -12 -13 -13 -13 -13 -14 -14 -14 -15 -15 -15 -16 -16 -16 -16
-0 -0 -1 -1 -1 -1 -2 -2 -3 -3 -4 -4 -5 -5 -5 -7 -9 -10 -11 -11 -10 -10 -10 -10 -10 -11 -11 -12 -12 -13 -13 -13 -13 -14 -14 -14 -15 -15 -15 -16 -16 -16 -16 -16
-1 -1 -1 -1 -2 -2 -3 -3 -4 -4 -5 -5 -5 -6 -8 -9 -10 -11 -11 -10 -10 -10 -10 -10 -11 -12 -12 -13 -13 -13 -13 -13 -14 -14 -14 -15 -15 -15 -15 -16 -16 -16 -16 -16
-1 -2 -2 -2 -3 -3 -4 -5 -5 -5 -5 -6 -7 -8 -9 -10 -11 -10 -10 -10 -10 -10 -11 -11 -12 -13 -13 -13 -13 -13 -13 -14 -14 -14 -15 -15 -15 -16 -16 -16 -16 -16 -16 -16
-2 -2 -3 -4 -4 -5 -5 -6 -5 -7 -8 -8 -9 -10 -11 -10 -10 -10 -10 -10 -11 -11 -12 -13 -13 -13 -13 -13 -13 -13 -14 -14 -14 -14 -15 -15 -16 -16 -16 -16 -16 -16 -16 -17
-3 -4 -4 -5 -6 -6 -6 -7 -7 -8 -9 -10 -11 -11 -10 -10 -10 -10 -11 -11 -11 -12 -13 -13 -13 -14 -14 -14 -14 -14 -14 -15 -15 -15 -15 -15 -16 -16 -16 -16 -16 -17 -17 -17
-4 -5 -6 -6 -6 -7 -8 -9 -9 -10 -11 -11 -10 -10 -10 -11 -11 -11 -11 -11 -12 -12 -14 -14 -14 -14 -14 -14 -14 -14 -15 -15 -15 -15 -15 -15 -16 -16 -16 -17 -17 -17 -17 -17
-6 -7 -7 -7 -8 -9 -9 -10 -11 -10 -10 -10 -11 -11 -11 -11 -11 -11 -11 -11 -12 -13 -14 -14 -14 -15 -15 -15 -15 -15 -15 -15 -15 -15 -15 -16 -16 -17 -17 -17 -17 -17 -17 -17
-8 -8 -9 -9 -10 -11 -10 -10 -10 -10 -11 -11 -11 -11 -11 -11 -11 -11 -12 -12 -13 -14 -14 -15 -15 -15 -15 -15 -15 -16 -16 -16 -16 -16 -16 -16 -16 -16 -17 -17 -17 -17 -17 -17
-9 -9 -10 -10 -10 -10 -10 -11 -11 -11 -11 -11 -11 -11 -11 -11 -12 -12 -12 -13 -13 -15 -15 -16 -16 -16 -16 -16 -16 -16 -16 -16 -16 -16 -16 -16 -17 -17 -17 -17 -17 -17 -17 -17
-10 -10 -10 -11 -11 -11 -11 -11 -11 -11 -11 -11 -12 -12 -12 -12 -12 -13 -13 -14 -15 -15 -16 -16 -16 -16 -16 -17 -17 -16 -17 -17 -17 -17 -17 -17 -17 -17 -17 -17 -17 -17 -17 -17
-11 -11 -11 -11 -11 -11 -11 -11 -12 -12 -12 -12 -12 -12 -13 -13 -13 -14 -14 -14 -15 -15 -16 -16 -17 -16 -17 -17 -17 -17 -17 -17 -17 -17 -17 -17 -17 -17 -17 -17 -17 -17 -18 -17
-12 -12 -12 -12 -12 -12 -12 -12 -12 -12 -13 -13 -13 -13 -14 -14 -13 -14 -15 -15 -16 -16 -16 -17 -17 -17 -17 -17 -17 -18 -18 -18 -18 -18 -17 -17 -17 -17 -17 -17 -18 -18 -18 -18
-12 -12 -12 -12 -12 -13 -13 -13 -13 -13 -13 -13 -13 -13 -13 -14 -15 -14 -15 -15 -16 -17 -18 -18 -18 -18 -18 -18 -18 -18 -18 -18 -18 -18 -18 -17 -17 -17 -17 -18 -18 -18 -18 -18
-12 -13 -13 -13 -13 -13 -13 -13 -13 -13 -13 -13 -13 -14 -14 -15 -15 -16 -16 -17 -17 -18 -18 -18 -18 -18 -18 -18 -18 -18 -18 -18 -18 -19 -19 -18 -18 -18 -18 -18 -18 -18 -19 -19
-13 -13 -13 -14 -14 -14 -14 -14 -14 -14 -14 -14 -14 -15 -15 -16 -16 -17 -17 -18 -19 -19 -19 -19 -19 -19 -19 -19 -19 -19 -19 -19 -19 -19 -19 -19 -19 -19 -19 -19 -19 -19 -19 -20

GFSNGP_700_temp_048.txt.gz
Temp
5 5 5 5 5 5 4 5 4 6 5 5 4 4 3 3 2 2 1 1 0 -0 -1 -1 -2 -2 -3 -3 -3 -4 -6 -6 -6 -6 -6 -7 -8 -9 -10 -10 -11 -11 -11 -12
4 5 5 5 5 5 5 4 4 4 5 4 4 4 4 3 2 2 1 1 -0 -1 -2 -2 -3 -3 -3 -4 -4 -6 -6 -6 -6 -7 -7 -8 -9 -10 -10 -11 -11 -11 -12 -13
3 4 4 3 5 5 5 6 5 4 5 3 4 3 3 2 2 1 1 -0 -1 -2 -2 -3 -3 -3 -3 -5 -6 -6 -6 -6 -7 -7 -8 -9 -10 -10 -11 -11 -11 -12 -12 -13
3 3 2 5 5 5 5 5 5 5 4 4 3 2 2 2 1 1 0 -1 -2 -2 -3 -3 -3 -4 -5 -6 -7 -7 -7 -7 -7 -8 -9 -9 -10 -11 -11 -12 -12 -12 -13 -13
3 2 4 5 5 5 5 5 5 4 4 4 2 2 1 1 1 0 -0 -2 -2 -3 -3 -4 -4 -5 -6 -7 -7 -7 -7 -8 -8 -9 -9 -10 -11 -11 -12 -12 -12 -13 -13 -14
2 2 2 4 5 4 4 2 3 3 3 2 2 1 0 1 -0 -1 -2 -2 -3 -4 -3 -4 -5 -6 -8 -8 -8 -7 -8 -8 -9 -9 -10 -11 -11 -12 -12 -12 -13 -13 -13 -14
2 1 3 4 3 3 2 2 2 2 2 1 1 0 0 -0 -1 -2 -3 -3 -3 -3 -3 -4 -6 -8 -9 -9 -8 -8 -8 -9 -9 -10 -11 -11 -12 -12 -12 -13 -13 -13 -14 -14
2 1 1 3 2 2 1 1 1 1 0 -0 -1 -1 -1 -2 -2 -3 -3 -4 -4 -4 -4 -6 -7 -9 -9 -8 -8 -9 -9 -9 -10 -11 -11 -12 -12 -13 -13 -13 -13 -14 -14 -15
2 2 3 2 1 1 1 1 0 -0 -1 -1 -1 -2 -2 -2 -3 -3 -4 -4 -4 -5 -6 -8 -9 -10 -9 -9 -9 -9 -9 -10 -11 -11 -12 -13 -13 -13 -13 -14 -14 -14 -15 -15
2 2 1 1 1 1 0 0 -0 -1 -1 -1 -2 -2 -2 -3 -3 -4 -4 -4 -5 -7 -8 -10 -10 -9 -9 -9 -9 -10 -10 -11 -12 -12 -13 -13 -13 -13 -14 -14 -14 -15 -15 -15
1 1 1 0 0 -0 -1 -1 -1 -1 -1 -2 -2 -3 -3 -4 -4 -4 -4 -6 -8 -9 -10 -10 -9 -9 -9 -10 -10 -11 -11 -12 -12 -13 -13 -13 -14 -14 -14 -14 -15 -15 -15 -15
0 0 -0 -0 -0 -1 -1 -1 -2 -2 -2 -3 -3 -4 -4 -4 -5 -5 -6 -8 -9 -11 -11 -10 -10 -10 -10 -10 -11 -12 -12 -13 -13 -13 -13 -13 -14 -14 -14 -15 -15 -15 -15 -16
-0 -0 -1 -1 -1 -1 -1 -2 -2 -2 -3 -4 -5 -5 -5 -5 -6 -7 -8 -10 -11 -11 -10 -10 -10 -10 -11 -11 -12 -13 -13 -13 -13 -13 -14 -14 -14 -14 -15 -15 -15 -15 -15 -16
-0 -1 -1 -1 -2 -2 -2 -3 -3 -3 -5 -5 -5 -5 -6 -7 -8 -10 -11 -10 -10 -10 -10 -10 -10 -11 -11 -12 -13 -13 -13 -13 -13 -14 -14 -14 -14 -15 -15 -15 -15 -16 -16 -16
-1 -2 -2 -2 -3 -3 -3 -4 -5 -5 -5 -5 -6 -7 -8 -9 -10 -11 -10 -10 -10 -10 -10 -10 -11 -12 -12 -13 -13 -13 -14 -14 -14 -14 -14 -15 -15 -15 -15 -15 -16 -16 -16 -16
-2 -3 -3 -3 -3 -4 -6 -5 -6 -6 -7 -8 -8 -9 -10 -10 -10 -10 -10 -10 -10 -10 -11 -11 -12 -12 -13 -14 -14 -14 -14 -14 -14 -14 -15 -15 -15 -15 -15 -16 -16 -16 -16 -17
-3 -3 -4 -5 -6 -6 -6 -7 -7 -8 -9 -9 -10 -10 -10 -10 -10 -10 -10 -10 -11 -11 -11 -12 -12 -13 -13 -14 -14 -15 -15 -15 -15 -15 -15 -15 -15 -15 -16 -16 -16 -17 -17 -17
-4 -5 -6 -7 -7 -7 -8 -9 -9 -10 -10 -10 -10 -10 -10 -10 -11 -11 -11 -11 -11 -11 -11 -12 -12 -13 -14 -15 -15 -15 -15 -15 -15 -16 -15 -16 -16 -16 -16 -16 -17 -17 -17 -17
-6 -7 -8 -7 -8 -9 -9 -9 -10 -10 -10 -11 -11 -11 -11 -11 -11 -11 -11 -11 -11 -12 -12 -13 -13 -14 -15 -15 -16 -16 -16 -16 -16 -16 -16 -16 -16 -16 -16 -17 -17 -17 -17 -17
-8 -8 -9 -9 -9 -10 -10 -10 -11 -11 -11 -11 -11 -11 -11 -11 -11 -11 -11 -11 -12 -13 -13 -14 -14 -15 -15 -16 -16 -16 -16 -16 -17 -17 -17 -17 -17 -17 -17 -17 -17 -17 -17 -17
-9 -9 -10 -10 -11 -11 -11 -11 -11 -11 -12 -11 -11 -11 -11 -11 -12 -12 -12 -12 -12 -13 -13 -14 -15 -16 -16 -16 -17 -17 -16 -17 -17 -17 -17 -17 -17 -17 -17 -17 -17 -17 -17 -17
-10 -10 -11 -11 -11 -11 -11 -11 -12 -12 -12 -12 -12 -12 -12 -12 -12 -12 -13 -13 -13 -14 -14 -15 -15 -16 -16 -16 -16 -17 -17 -17 -17 -17 -18 -18 -18 -18 -18 -17 -17 -18 -18 -18
-11 -11 -11 -11 -11 -12 -12 -12 -12 -12 -12 -12 -12 -12 -12 -13 -13 -13 -13 -13 -14 -14 -15 -15 -16 -17 -17 -17 -17 -17 -17 -17 -17 -18 -18 -18 -18 -18 -18 -18 -18 -18 -18 -18
-11 -11 -11 -12 -12 -12 -12 -12 -13 -12 -12 -13 -13 -13 -13 -13 -13 -14 -15 -15 -15 -16 -16 -16 -17 -18 -18 -18 -18 -18 -18 -18 -18 -18 -18 -18 -18 -19 -18 -18 -18 -18 -18 -18
-12 -12 -12 -12 -12 -12 -13 -13 -13 -13 -13 -13 -13 -14 -14 -14 -14 -14 -15 -16 -16 -17 -17 -17 -18 -18 -19 -19 -18 -19 -19 -19 -19 -19 -19 -19 -19 -19 -19 -19 -18 -18 -18 -18
-12 -13 -13 -13 -13 -13 -13 -13 -13 -13 -13 -13 -14 -14 -14 -15 -15 -16 -16 -16 -17 -18 -18 -19 -19 -19 -19 -19 -19 -19 -19 -19 -19 -19 -19 -19 -19 -20 -20 -19 -19 -19 -19 -19
-13 -13 -13 -13 -14 -14 -14 -14 -14 -14 -14 -14 -14 -15 -16 -16 -16 -16 -17 -17 -18 -19 -20 -20 -20 -20 -20 -20 -20 -20 -20 -20 -20 -20 -20 -20 -20 -20 -20 -20 -20 -19 -19 -19